M I D A S
Marine Information and Data Acquisition System
Tripno 2133 of the Zeeleeuw from 2011-02-24 08:26:42 to 2011-02-24 17:00:55
Back to CruiseResearch ActivitiesStationsMapUnderway DataData graphs

EquipmentUnitsComment
TimeDGPSUTC
LatitudeDGPSDM.mWGS84
LongitudeDGPSDM.mWGS84
TemperatureSBE03/SBE38deg celciusITS90
ConductivitySBE21S/mITS90
SalinitySBE21 Practical Salinity Units
ChlorophylAChelsea fluorimeterg/lCalibrated in Aceton
Missing or incorrect values are displayed as -999
Sea surface data collected by the RV Zeeleeuw from 2011-02-24 06:56:12 to 2011-02-24 17:01:52
                                                                                    Next 1000 lines
Time Latitude Longitude Temperature Conductivity Salinity ChlorophylA
2011-02-24 06:56:22 51°13.664 2°55.96 13.7088 0.0195 0.10106 1.158523
2011-02-24 06:56:27 51°13.664 2°55.96 13.7095 0.0195 0.101058 1.193347
2011-02-24 06:56:32 51°13.664 2°55.96 13.7112 0.0195 0.101058 1.193347
2011-02-24 06:56:37 51°13.664 2°55.96 13.7108 0.0195 0.101058 1.193347
2011-02-24 06:56:42 51°13.664 2°55.96 13.7108 0.0195 0.101057 1.193347
2011-02-24 06:56:47 51°13.664 2°55.96 13.7102 0.0195 0.101057 1.158523
2011-02-24 06:56:51 51°13.664 2°55.96 13.7081 0.0195 0.101056 1.158523
2011-02-24 06:56:57 51°13.664 2°55.96 13.7085 0.0195 0.101056 1.158523
2011-02-24 06:57:02 51°13.664 2°55.96 13.7079 0.0195 0.101054 1.158523
2011-02-24 06:57:07 51°13.664 2°55.96 13.7075 0.0195 0.101054 1.158523
2011-02-24 06:57:12 51°13.664 2°55.96 13.7081 0.0195 0.101056 1.193347
2011-02-24 06:57:16 51°13.664 2°55.96 13.709 0.0195 0.101054 1.193347
2011-02-24 06:57:22 51°13.664 2°55.96 13.7091 0.0195 0.101054 1.158523
2011-02-24 06:57:27 51°13.664 2°55.96 13.7103 0.0195 0.101053 1.193347
2011-02-24 06:57:32 51°13.664 2°55.96 13.7092 0.0195 0.101053 1.158523
2011-02-24 06:57:37 51°13.664 2°55.96 13.7103 0.0195 0.101053 1.158523
2011-02-24 06:57:42 51°13.663 2°55.96 13.7073 0.0195 0.101052 1.158523
2011-02-24 06:57:47 51°13.663 2°55.96 13.7036 0.0195 0.101052 1.193347
2011-02-24 06:57:52 51°13.664 2°55.96 13.7051 0.0195 0.10105 1.158523
2011-02-24 06:57:57 51°13.664 2°55.96 13.7056 0.0195 0.10105 1.193347
2011-02-24 06:58:02 51°13.664 2°55.96 13.7054 0.0195 0.101049 1.158523
2011-02-24 06:58:07 51°13.664 2°55.96 13.7077 0.0195 0.101049 1.158523
2011-02-24 06:58:12 51°13.664 2°55.96 13.7076 0.0195 0.101049 1.158523
2011-02-24 06:58:17 51°13.664 2°55.96 13.7087 0.0195 0.101048 1.158523
2011-02-24 06:58:22 51°13.664 2°55.96 13.7085 0.0195 0.101048 1.193347
2011-02-24 06:58:27 51°13.664 2°55.96 13.7095 0.0195 0.101048 1.158523
2011-02-24 06:58:32 51°13.663 2°55.96 13.7108 0.0195 0.101048 1.193347
2011-02-24 06:58:37 51°13.663 2°55.961 13.7079 0.0195 0.101048 1.193347
2011-02-24 06:58:42 51°13.663 2°55.96 13.7112 0.0195 0.101046 1.158523
2011-02-24 06:58:47 51°13.663 2°55.961 13.7099 0.0195 0.101046 1.158523
2011-02-24 06:58:51 51°13.662 2°55.961 13.7074 0.0195 0.101046 1.158523
2011-02-24 06:58:57 51°13.662 2°55.961 13.7079 0.0195 0.101045 1.158523
2011-02-24 06:59:02 51°13.662 2°55.961 13.7081 0.0195 0.101044 1.158523
2011-02-24 06:59:07 51°13.662 2°55.961 13.7101 0.0195 0.101044 1.158523
2011-02-24 06:59:12 51°13.662 2°55.961 13.71 0.0195 0.101042 1.193347
2011-02-24 06:59:17 51°13.662 2°55.961 13.7118 0.0195 0.101042 1.158523
2011-02-24 06:59:22 51°13.662 2°55.961 13.7125 0.0195 0.101042 1.158523
2011-02-24 06:59:27 51°13.662 2°55.961 13.7093 0.0195 0.101041 1.158523
2011-02-24 06:59:32 51°13.662 2°55.961 13.7128 0.0195 0.101041 1.193347
2011-02-24 06:59:37 51°13.662 2°55.961 13.7108 0.0195 0.101041 1.193347
2011-02-24 06:59:42 51°13.662 2°55.961 13.7135 0.0195 0.101041 1.158523
2011-02-24 06:59:47 51°13.661 2°55.961 13.715 0.0195 0.101041 1.158523
2011-02-24 06:59:52 51°13.662 2°55.961 13.7144 0.0195 0.10104 1.193347
2011-02-24 06:59:57 51°13.662 2°55.961 13.71 0.0195 0.101038 1.158523
2011-02-24 07:00:02 51°13.662 2°55.961 13.713 0.0195 0.101037 1.193347
2011-02-24 07:00:07 51°13.662 2°55.961 13.7111 0.0195 0.101037 1.193347
2011-02-24 07:00:12 51°13.662 2°55.961 13.7107 0.0195 0.101037 1.158523
2011-02-24 07:00:17 51°13.662 2°55.961 13.7114 0.0195 0.101037 1.158523
2011-02-24 07:00:22 51°13.662 2°55.962 13.7141 0.0195 0.101036 1.158523
2011-02-24 07:00:27 51°13.662 2°55.962 13.7179 0.0195 0.101036 1.158523
2011-02-24 07:00:32 51°13.662 2°55.962 13.7194 0.0195 0.101034 1.158523
2011-02-24 07:00:37 51°13.662 2°55.962 13.7191 0.0195 0.101034 1.158523
2011-02-24 07:00:41 51°13.662 2°55.962 13.7212 0.0195 0.101034 1.193347
2011-02-24 07:00:47 51°13.662 2°55.962 13.7197 0.0195 0.101033 1.158523
2011-02-24 07:00:52 51°13.662 2°55.962 13.7202 0.0195 0.101032 1.193347
2011-02-24 07:00:57 51°13.662 2°55.961 13.7179 0.0195 0.10103 1.158523
2011-02-24 07:01:01 51°13.662 2°55.961 13.7195 0.0195 0.10103 1.158523
2011-02-24 07:01:07 51°13.662 2°55.962 13.7203 0.0195 0.10103 1.158523
2011-02-24 07:01:12 51°13.662 2°55.962 13.7206 0.0195 0.10103 1.158523
2011-02-24 07:01:17 51°13.662 2°55.962 13.7185 0.0195 0.101029 1.193347
2011-02-24 07:01:22 51°13.662 2°55.962 13.7222 0.0195 0.101029 1.158523
2011-02-24 07:01:27 51°13.662 2°55.962 13.7242 0.0195 0.101028 1.193347
2011-02-24 07:01:32 51°13.662 2°55.961 13.7221 0.0195 0.101028 1.158523
2011-02-24 07:01:37 51°13.662 2°55.962 13.7249 0.0195 0.101028 1.158523
2011-02-24 07:01:42 51°13.662 2°55.962 13.7249 0.0195 0.101026 1.158523
2011-02-24 07:01:47 51°13.662 2°55.962 13.7258 0.0195 0.101025 1.158523
2011-02-24 07:01:52 51°13.662 2°55.962 13.7256 0.0195 0.101024 1.158523
2011-02-24 07:01:57 51°13.662 2°55.962 13.7233 0.0195 0.101024 1.158523
2011-02-24 07:02:02 51°13.662 2°55.962 13.7239 0.0195 0.101022 1.193347
2011-02-24 07:02:07 51°13.662 2°55.962 13.7233 0.0195 0.101022 1.193347
2011-02-24 07:02:12 51°13.662 2°55.961 13.7268 0.0195 0.10102 1.158523
2011-02-24 07:02:17 51°13.662 2°55.961 13.7297 0.0195 0.101021 1.193347
2011-02-24 07:02:22 51°13.662 2°55.961 13.7367 0.0195 0.101022 1.158523
2011-02-24 07:02:27 51°13.662 2°55.961 13.7375 0.0195 0.101025 1.193347
2011-02-24 07:02:32 51°13.662 2°55.961 13.7398 0.0195 0.101024 1.123699
2011-02-24 07:02:37 51°13.662 2°55.961 13.7397 0.0195 0.101024 1.123699
2011-02-24 07:02:42 51°13.662 2°55.961 13.7404 0.0195 0.101021 1.193347
2011-02-24 07:02:47 51°13.662 2°55.961 13.7369 0.0195 0.101018 1.158523
2011-02-24 07:02:52 51°13.662 2°55.961 13.7383 0.0195 0.101017 1.158523
2011-02-24 07:02:57 51°13.662 2°55.961 13.7337 0.0195 0.101014 1.158523
2011-02-24 07:03:02 51°13.663 2°55.961 13.7361 0.0195 0.101013 1.158523
2011-02-24 07:03:07 51°13.663 2°55.961 13.7286 0.0195 0.101013 1.158523
2011-02-24 07:03:12 51°13.663 2°55.961 13.7281 0.0195 0.101012 1.158523
2011-02-24 07:03:17 51°13.663 2°55.961 13.7268 0.0195 0.101012 1.158523
2011-02-24 07:03:22 51°13.663 2°55.961 13.7249 0.0195 0.10101 1.193347
2011-02-24 07:03:27 51°13.663 2°55.961 13.7234 0.0195 0.101008 1.158523
2011-02-24 07:03:32 51°13.663 2°55.961 13.7252 0.0195 0.101006 1.158523
2011-02-24 07:03:36 51°13.663 2°55.961 13.7235 0.0195 0.101006 1.158523
2011-02-24 07:03:41 51°13.663 2°55.961 13.7234 0.0195 0.101005 1.158523
2011-02-24 07:03:47 51°13.662 2°55.961 13.7245 0.0195 0.101005 1.158523
2011-02-24 07:03:52 51°13.663 2°55.961 13.7247 0.0195 0.101002 1.158523
2011-02-24 07:03:57 51°13.663 2°55.961 13.7225 0.0195 0.101002 1.158523
2011-02-24 07:04:02 51°13.663 2°55.96 13.7253 0.0195 0.101001 1.158523
2011-02-24 07:04:07 51°13.663 2°55.961 13.7277 0.0195 0.101001 1.158523
2011-02-24 07:04:12 51°13.663 2°55.961 13.7282 0.0195 0.101001 1.193347
2011-02-24 07:04:17 51°13.663 2°55.961 13.7236 0.0195 0.101 1.158523
2011-02-24 07:04:22 51°13.663 2°55.961 13.7221 0.0195 0.100997 1.158523
2011-02-24 07:04:27 51°13.662 2°55.961 13.7177 0.0195 0.100997 1.158523
2011-02-24 07:04:32 51°13.662 2°55.961 13.7203 0.0195 0.100997 1.158523
2011-02-24 07:04:37 51°13.662 2°55.961 13.718 0.0195 0.100997 1.158523
2011-02-24 07:04:42 51°13.663 2°55.961 13.718 0.0195 0.100995 1.123699
2011-02-24 07:04:47 51°13.663 2°55.961 13.7157 0.0195 0.100995 1.158523
2011-02-24 07:04:52 51°13.663 2°55.961 13.7178 0.0195 0.100992 1.158523
2011-02-24 07:04:57 51°13.663 2°55.961 13.7185 0.0195 0.100992 1.193347
2011-02-24 07:05:02 51°13.663 2°55.961 13.7166 0.0195 0.100989 1.123699
2011-02-24 07:05:07 51°13.662 2°55.961 13.7185 0.0195 0.100989 1.123699
2011-02-24 07:05:12 51°13.663 2°55.961 13.7197 0.0195 0.100989 1.193347
2011-02-24 07:05:17 51°13.663 2°55.961 13.7225 0.0195 0.100987 1.158523
2011-02-24 07:05:22 51°13.663 2°55.961 13.7256 0.0195 0.100988 1.158523
2011-02-24 07:05:27 51°13.663 2°55.961 13.7271 0.0195 0.100987 1.158523
2011-02-24 07:05:32 51°13.663 2°55.961 13.7284 0.0195 0.100984 1.158523
2011-02-24 07:05:37 51°13.663 2°55.961 13.7307 0.0195 0.100984 1.158523
2011-02-24 07:05:41 51°13.663 2°55.961 13.7312 0.0195 0.100984 1.158523
2011-02-24 07:05:47 51°13.663 2°55.961 13.7301 0.0195 0.100983 1.158523
2011-02-24 07:05:52 51°13.663 2°55.961 13.7284 0.0195 0.100983 1.158523
2011-02-24 07:05:57 51°13.663 2°55.962 13.7292 0.0195 0.100981 1.158523
2011-02-24 07:06:02 51°13.663 2°55.962 13.7231 0.0195 0.10098 1.158523
2011-02-24 07:06:07 51°13.663 2°55.961 13.7232 0.0195 0.10098 1.158523
2011-02-24 07:06:12 51°13.663 2°55.961 13.7213 0.0195 0.100979 1.193347
2011-02-24 07:06:17 51°13.663 2°55.961 13.7255 0.0195 0.100977 1.158523
2011-02-24 07:06:22 51°13.663 2°55.961 13.7273 0.0195 0.100977 1.158523
2011-02-24 07:06:27 51°13.663 2°55.961 13.7302 0.0195 0.100976 1.158523
2011-02-24 07:06:32 51°13.663 2°55.961 13.7314 0.0195 0.100975 1.158523
2011-02-24 07:06:37 51°13.663 2°55.961 13.7316 0.0195 0.100975 1.158523
2011-02-24 07:06:42 51°13.663 2°55.961 13.7317 0.0195 0.100973 1.158523
2011-02-24 07:06:47 51°13.663 2°55.961 13.7285 0.0195 0.100972 1.193347
2011-02-24 07:06:52 51°13.663 2°55.961 13.7269 0.0195 0.100973 1.158523
2011-02-24 07:06:57 51°13.663 2°55.961 13.7281 0.0195 0.100971 1.193347
2011-02-24 07:07:02 51°13.663 2°55.961 13.7267 0.0195 0.100971 1.123699
2011-02-24 07:07:07 51°13.662 2°55.961 13.7263 0.0195 0.100971 1.123699
2011-02-24 07:07:12 51°13.662 2°55.961 13.7285 0.0195 0.100969 1.193347
2011-02-24 07:07:17 51°13.662 2°55.961 13.7288 0.0195 0.100969 1.158523
2011-02-24 07:07:22 51°13.663 2°55.961 13.7302 0.0195 0.100968 1.158523
2011-02-24 07:07:27 51°13.663 2°55.961 13.7267 0.0195 0.100968 1.158523
2011-02-24 07:07:32 51°13.663 2°55.961 13.727 0.0195 0.100965 1.158523
2011-02-24 07:07:37 51°13.663 2°55.961 13.7222 0.0195 0.100965 1.158523
2011-02-24 07:07:42 51°13.663 2°55.961 13.7265 0.0195 0.100965 1.158523
2011-02-24 07:07:47 51°13.663 2°55.961 13.7288 0.0195 0.100964 1.158523
2011-02-24 07:07:52 51°13.663 2°55.961 13.73 0.0195 0.100964 1.158523
2011-02-24 07:07:56 51°13.663 2°55.961 13.7301 0.0195 0.100963 1.123699
2011-02-24 07:08:01 51°13.663 2°55.961 13.7357 0.0195 0.100961 1.158523
2011-02-24 07:08:06 51°13.663 2°55.961 13.7327 0.0195 0.100961 1.158523
2011-02-24 07:08:12 51°13.663 2°55.961 13.732 0.0195 0.10096 1.193347
2011-02-24 07:08:17 51°13.663 2°55.961 13.7313 0.0195 0.10096 1.123699
2011-02-24 07:08:22 51°13.663 2°55.961 13.7337 0.0195 0.100959 1.158523
2011-02-24 07:08:27 51°13.662 2°55.961 13.7335 0.0195 0.100959 1.158523
2011-02-24 07:08:32 51°13.662 2°55.961 13.7292 0.0195 0.100957 1.158523
2011-02-24 07:08:37 51°13.663 2°55.961 13.7272 0.0195 0.100957 1.158523
2011-02-24 07:08:42 51°13.663 2°55.961 13.7252 0.0195 0.100956 1.158523
2011-02-24 07:08:46 51°13.663 2°55.961 13.7274 0.0195 0.100956 1.158523
2011-02-24 07:08:51 51°13.663 2°55.961 13.7251 0.0195 0.100953 1.158523
2011-02-24 07:08:57 51°13.662 2°55.961 13.7269 0.0195 0.100955 1.193347
2011-02-24 07:09:02 51°13.662 2°55.961 13.726 0.0195 0.100953 1.158523
2011-02-24 07:09:07 51°13.662 2°55.961 13.7254 0.0195 0.100953 1.158523
2011-02-24 07:09:12 51°13.662 2°55.961 13.7267 0.0195 0.100953 1.158523
2011-02-24 07:09:17 51°13.662 2°55.961 13.7208 0.0195 0.100953 1.193347
2011-02-24 07:09:22 51°13.662 2°55.962 13.7195 0.0195 0.100952 1.158523
2011-02-24 07:09:27 51°13.662 2°55.961 13.7177 0.0195 0.100951 1.158523
2011-02-24 07:09:32 51°13.662 2°55.962 13.7186 0.0195 0.100949 1.158523
2011-02-24 07:09:37 51°13.662 2°55.962 13.7216 0.0195 0.100949 1.158523
2011-02-24 07:09:42 51°13.662 2°55.961 13.7246 0.0195 0.100949 1.158523
2011-02-24 07:09:47 51°13.662 2°55.962 13.7266 0.0195 0.100947 1.158523
2011-02-24 07:09:52 51°13.662 2°55.961 13.7266 0.0195 0.100947 1.193347
2011-02-24 07:09:57 51°13.662 2°55.961 13.7282 0.0195 0.100947 1.158523
2011-02-24 07:10:02 51°13.662 2°55.961 13.7291 0.0195 0.100947 1.193347
2011-02-24 07:10:07 51°13.662 2°55.962 13.7303 0.0195 0.100947 1.193347
2011-02-24 07:10:12 51°13.662 2°55.962 13.7315 0.0195 0.100945 1.158523
2011-02-24 07:10:17 51°13.662 2°55.961 13.7319 0.0195 0.100945 1.193347
2011-02-24 07:10:22 51°13.662 2°55.962 13.7338 0.0195 0.100944 1.158523
2011-02-24 07:10:26 51°13.662 2°55.962 13.7343 0.0195 0.100943 1.158523
2011-02-24 07:10:31 51°13.662 2°55.962 13.7347 0.0195 0.100943 1.158523
2011-02-24 07:10:36 51°13.662 2°55.962 13.7359 0.0195 0.100943 1.158523
2011-02-24 07:10:41 51°13.662 2°55.961 13.7365 0.0195 0.100941 1.158523
2011-02-24 07:10:47 51°13.662 2°55.961 13.7346 0.0195 0.100941 1.158523
2011-02-24 07:10:52 51°13.662 2°55.962 13.7361 0.0195 0.100939 1.193347
2011-02-24 07:10:57 51°13.662 2°55.962 13.7361 0.0195 0.10094 1.158523
2011-02-24 07:11:02 51°13.662 2°55.961 13.7383 0.0195 0.100939 1.193347
2011-02-24 07:11:07 51°13.662 2°55.961 13.7386 0.0195 0.100939 1.193347
2011-02-24 07:11:12 51°13.662 2°55.962 13.7399 0.0195 0.100938 1.158523
2011-02-24 07:11:17 51°13.662 2°55.962 13.7393 0.0195 0.100936 1.193347
2011-02-24 07:11:22 51°13.662 2°55.962 13.7383 0.0195 0.100935 1.158523
2011-02-24 07:11:27 51°13.662 2°55.962 13.7398 0.0195 0.100935 1.158523
2011-02-24 07:11:32 51°13.662 2°55.962 13.7426 0.0195 0.100935 1.158523
2011-02-24 07:11:37 51°13.662 2°55.962 13.7436 0.0195 0.100935 1.158523
2011-02-24 07:11:42 51°13.662 2°55.962 13.7455 0.0195 0.100934 1.193347
2011-02-24 07:11:47 51°13.662 2°55.962 13.7422 0.0195 0.100932 1.123699
2011-02-24 07:11:52 51°13.662 2°55.962 13.7427 0.0195 0.100932 1.158523
2011-02-24 07:11:57 51°13.662 2°55.961 13.741 0.0195 0.100931 1.158523
2011-02-24 07:12:02 51°13.662 2°55.961 13.7452 0.0195 0.100931 1.193347
2011-02-24 07:12:07 51°13.662 2°55.961 13.7434 0.0195 0.100931 1.193347
2011-02-24 07:12:12 51°13.662 2°55.961 13.7452 0.0195 0.10093 1.193347
2011-02-24 07:12:17 51°13.662 2°55.962 13.7447 0.0195 0.100928 1.158523
2011-02-24 07:12:22 51°13.661 2°55.962 13.7459 0.0195 0.100928 1.123699
2011-02-24 07:12:27 51°13.662 2°55.961 13.7446 0.0195 0.100928 1.158523
2011-02-24 07:12:32 51°13.662 2°55.961 13.7468 0.0195 0.100927 1.158523
2011-02-24 07:12:37 51°13.662 2°55.961 13.7446 0.0195 0.100927 1.158523
2011-02-24 07:12:42 51°13.662 2°55.961 13.7473 0.0195 0.100926 1.193347
2011-02-24 07:12:47 51°13.662 2°55.961 13.7472 0.0195 0.100924 1.158523
2011-02-24 07:12:52 51°13.662 2°55.961 13.7467 0.0195 0.100924 1.193347
2011-02-24 07:12:57 51°13.662 2°55.961 13.7454 0.0195 0.100924 1.158523
2011-02-24 07:13:01 51°13.662 2°55.961 13.7448 0.0195 0.100923 1.158523
2011-02-24 07:13:07 51°13.662 2°55.961 13.7415 0.0195 0.100923 1.158523
2011-02-24 07:13:11 51°13.662 2°55.961 13.7439 0.0195 0.100922 1.158523
2011-02-24 07:13:16 51°13.662 2°55.961 13.7487 0.0195 0.100919 1.193347
2011-02-24 07:13:22 51°13.662 2°55.961 13.7513 0.0195 0.100922 1.158523
2011-02-24 07:13:27 51°13.662 2°55.961 13.7534 0.0195 0.10092 1.193347
2011-02-24 07:13:32 51°13.662 2°55.961 13.7543 0.0195 0.100918 1.193347
2011-02-24 07:13:37 51°13.662 2°55.961 13.7533 0.0195 0.100918 1.193347
2011-02-24 07:13:42 51°13.662 2°55.961 13.7536 0.0195 0.100918 1.158523
2011-02-24 07:13:47 51°13.662 2°55.961 13.7522 0.0195 0.100916 1.158523
2011-02-24 07:13:52 51°13.662 2°55.961 13.7514 0.0195 0.100916 1.158523
2011-02-24 07:13:57 51°13.662 2°55.961 13.7529 0.0195 0.100916 1.193347
2011-02-24 07:14:02 51°13.662 2°55.961 13.7542 0.0195 0.100915 1.193347
2011-02-24 07:14:07 51°13.662 2°55.961 13.7561 0.0195 0.100915 1.193347
2011-02-24 07:14:12 51°13.662 2°55.961 13.7583 0.0195 0.100914 1.158523
2011-02-24 07:14:17 51°13.663 2°55.961 13.7585 0.0195 0.100914 1.158523
2011-02-24 07:14:22 51°13.663 2°55.961 13.7595 0.0195 0.100914 1.158523
2011-02-24 07:14:26 51°13.663 2°55.961 13.76 0.0195 0.100912 1.193347
2011-02-24 07:14:31 51°13.663 2°55.962 13.7598 0.0195 0.100911 1.123699
2011-02-24 07:14:37 51°13.663 2°55.962 13.7592 0.0195 0.100911 1.123699
2011-02-24 07:14:42 51°13.662 2°55.962 13.755 0.0195 0.100911 1.158523
2011-02-24 07:14:47 51°13.662 2°55.962 13.7541 0.0195 0.10091 1.158523
2011-02-24 07:14:52 51°13.663 2°55.962 13.7611 0.0195 0.10091 1.193347
2011-02-24 07:14:57 51°13.662 2°55.962 13.7606 0.0195 0.100908 1.158523
2011-02-24 07:15:02 51°13.662 2°55.962 13.7664 0.0195 0.100907 1.193347
2011-02-24 07:15:07 51°13.663 2°55.962 13.7655 0.0195 0.100907 1.193347
2011-02-24 07:15:12 51°13.663 2°55.962 13.7693 0.0195 0.100908 1.158523
2011-02-24 07:15:17 51°13.662 2°55.962 13.7683 0.0195 0.100907 1.193347
2011-02-24 07:15:22 51°13.662 2°55.962 13.7692 0.0195 0.100906 1.158523
2011-02-24 07:15:27 51°13.662 2°55.962 13.7678 0.0195 0.100907 1.193347
2011-02-24 07:15:32 51°13.662 2°55.962 13.7676 0.0195 0.100906 1.158523
2011-02-24 07:15:37 51°13.662 2°55.962 13.7672 0.0195 0.100906 1.158523
2011-02-24 07:15:42 51°13.662 2°55.962 13.7695 0.0195 0.100904 1.158523
2011-02-24 07:15:47 51°13.662 2°55.962 13.7718 0.0195 0.100904 1.158523
2011-02-24 07:15:51 51°13.662 2°55.962 13.7717 0.0195 0.100903 1.158523
2011-02-24 07:15:57 51°13.662 2°55.962 13.7721 0.0195 0.100903 1.158523
2011-02-24 07:16:02 51°13.662 2°55.962 13.7701 0.0195 0.100903 1.193347
2011-02-24 07:16:07 51°13.662 2°55.962 13.7701 0.0195 0.100903 1.193347
2011-02-24 07:16:12 51°13.662 2°55.962 13.771 0.0195 0.100903 1.158523
2011-02-24 07:16:17 51°13.662 2°55.962 13.7721 0.0195 0.100902 1.158523
2011-02-24 07:16:22 51°13.662 2°55.962 13.7721 0.0195 0.100902 1.193347
2011-02-24 07:16:27 51°13.662 2°55.962 13.7724 0.0195 0.100902 1.158523
2011-02-24 07:16:32 51°13.661 2°55.962 13.7728 0.0195 0.1009 1.158523
2011-02-24 07:16:37 51°13.662 2°55.962 13.771 0.0195 0.1009 1.158523
2011-02-24 07:16:42 51°13.662 2°55.962 13.7733 0.0195 0.1009 1.158523
2011-02-24 07:16:47 51°13.662 2°55.962 13.7734 0.0195 0.100899 1.158523
2011-02-24 07:16:51 51°13.661 2°55.962 13.7755 0.0195 0.1009 1.158523
2011-02-24 07:16:57 51°13.661 2°55.962 13.7774 0.0195 0.1009 1.158523
2011-02-24 07:17:02 51°13.661 2°55.962 13.7784 0.0195 0.1009 1.158523
2011-02-24 07:17:07 51°13.661 2°55.962 13.7786 0.0195 0.1009 1.158523
2011-02-24 07:17:12 51°13.662 2°55.962 13.779 0.0195 0.100899 1.158523
2011-02-24 07:17:17 51°13.661 2°55.962 13.78 0.0195 0.100899 1.158523
2011-02-24 07:17:22 51°13.661 2°55.961 13.7802 0.0195 0.1009 1.158523
2011-02-24 07:17:27 51°13.661 2°55.961 13.7809 0.0195 0.100898 1.123699
2011-02-24 07:17:32 51°13.662 2°55.961 13.781 0.0195 0.100896 1.158523
2011-02-24 07:17:37 51°13.662 2°55.962 13.7811 0.0195 0.100896 1.158523
2011-02-24 07:17:41 51°13.661 2°55.961 13.7823 0.0195 0.100899 1.158523
2011-02-24 07:17:47 51°13.661 2°55.962 13.7818 0.0195 0.100895 1.193347
2011-02-24 07:17:52 51°13.661 2°55.962 13.7831 0.0195 0.100896 1.158523
2011-02-24 07:17:57 51°13.661 2°55.962 13.7812 0.0195 0.100895 1.193347
2011-02-24 07:18:02 51°13.661 2°55.962 13.781 0.0195 0.100896 1.158523
2011-02-24 07:18:07 51°13.661 2°55.961 13.7781 0.0195 0.100896 1.158523
2011-02-24 07:18:12 51°13.661 2°55.961 13.7793 0.0195 0.100896 1.158523
2011-02-24 07:18:17 51°13.661 2°55.961 13.7767 0.0195 0.100894 1.158523
2011-02-24 07:18:22 51°13.661 2°55.961 13.776 0.0195 0.100894 1.193347
2011-02-24 07:18:27 51°13.661 2°55.961 13.7701 0.0195 0.100894 1.193347
2011-02-24 07:18:32 51°13.661 2°55.961 13.7697 0.0195 0.100895 1.158523
2011-02-24 07:18:37 51°13.661 2°55.961 13.7697 0.0195 0.100895 1.158523
2011-02-24 07:18:41 51°13.661 2°55.962 13.7679 0.0195 0.100894 1.193347
2011-02-24 07:18:46 51°13.661 2°55.961 13.7679 0.0195 0.100894 1.158523
2011-02-24 07:18:52 51°13.661 2°55.961 13.7685 0.0195 0.100892 1.193347
2011-02-24 07:18:57 51°13.661 2°55.961 13.7676 0.0195 0.100892 1.158523
2011-02-24 07:19:02 51°13.661 2°55.962 13.7696 0.0195 0.100891 1.193347
2011-02-24 07:19:07 51°13.661 2°55.962 13.7713 0.0195 0.100891 1.193347
2011-02-24 07:19:12 51°13.661 2°55.962 13.7727 0.0195 0.100891 1.158523
2011-02-24 07:19:17 51°13.661 2°55.962 13.7726 0.0195 0.100891 1.193347
2011-02-24 07:19:22 51°13.661 2°55.961 13.773 0.0195 0.10089 1.193347
2011-02-24 07:19:27 51°13.661 2°55.961 13.7744 0.0195 0.10089 1.158523
2011-02-24 07:19:32 51°13.661 2°55.961 13.776 0.0195 0.100889 1.158523
2011-02-24 07:19:37 51°13.661 2°55.961 13.7761 0.0195 0.100889 1.158523
2011-02-24 07:19:42 51°13.662 2°55.961 13.7791 0.0195 0.100889 1.158523
2011-02-24 07:19:47 51°13.662 2°55.961 13.7805 0.0195 0.100889 1.158523
2011-02-24 07:19:51 51°13.662 2°55.961 13.7825 0.0195 0.10089 1.158523
2011-02-24 07:19:56 51°13.662 2°55.961 13.787 0.0195 0.100887 1.158523
2011-02-24 07:20:02 51°13.662 2°55.961 13.7884 0.0195 0.100887 1.158523
2011-02-24 07:20:07 51°13.662 2°55.961 13.7896 0.0195 0.100887 1.158523
2011-02-24 07:20:12 51°13.662 2°55.961 13.7898 0.0195 0.100887 1.158523
2011-02-24 07:20:17 51°13.662 2°55.961 13.791 0.0195 0.100887 1.158523
2011-02-24 07:20:22 51°13.662 2°55.961 13.7895 0.0195 0.100886 1.158523
2011-02-24 07:20:27 51°13.662 2°55.961 13.7899 0.0195 0.100885 1.158523
2011-02-24 07:20:32 51°13.662 2°55.961 13.7907 0.0195 0.100885 1.158523
2011-02-24 07:20:37 51°13.662 2°55.961 13.7913 0.0195 0.100885 1.158523
2011-02-24 07:20:42 51°13.662 2°55.961 13.7946 0.0195 0.100885 1.158523
2011-02-24 07:20:47 51°13.662 2°55.96 13.795 0.0195 0.100883 1.158523
2011-02-24 07:20:52 51°13.662 2°55.96 13.7988 0.0195 0.100882 1.158523
2011-02-24 07:20:57 51°13.662 2°55.96 13.801 0.0195 0.100883 1.158523
2011-02-24 07:21:02 51°13.662 2°55.96 13.8027 0.0195 0.100881 1.158523
2011-02-24 07:21:07 51°13.662 2°55.961 13.8005 0.0195 0.100881 1.158523
2011-02-24 07:21:11 51°13.662 2°55.961 13.802 0.0195 0.100881 1.158523
2011-02-24 07:21:17 51°13.662 2°55.961 13.8031 0.0195 0.100881 1.193347
2011-02-24 07:21:22 51°13.662 2°55.961 13.8002 0.0195 0.100879 1.158523
2011-02-24 07:21:27 51°13.662 2°55.961 13.7997 0.0195 0.100878 1.123699
2011-02-24 07:21:32 51°13.662 2°55.962 13.795 0.0195 0.100878 1.123699
2011-02-24 07:21:37 51°13.662 2°55.962 13.7968 0.0195 0.100878 1.123699
2011-02-24 07:21:42 51°13.662 2°55.962 13.8012 0.0195 0.100877 1.193347
2011-02-24 07:21:47 51°13.662 2°55.961 13.804 0.0195 0.100877 1.158523
2011-02-24 07:21:52 51°13.662 2°55.961 13.8046 0.0195 0.100875 1.193347
2011-02-24 07:21:57 51°13.662 2°55.961 13.8067 0.0195 0.100875 1.193347
2011-02-24 07:22:02 51°13.662 2°55.961 13.8066 0.0195 0.100874 1.158523
2011-02-24 07:22:07 51°13.662 2°55.961 13.8073 0.0195 0.100874 1.158523
2011-02-24 07:22:12 51°13.662 2°55.961 13.8067 0.0195 0.100873 1.158523
2011-02-24 07:22:17 51°13.662 2°55.961 13.8066 0.0195 0.100873 1.123699
2011-02-24 07:22:22 51°13.662 2°55.961 13.828 0.0195 0.100873 1.158523
2011-02-24 07:22:27 51°13.662 2°55.961 13.8573 0.0195 0.100871 1.158523
2011-02-24 07:22:32 51°13.662 2°55.961 13.8549 0.0195 0.100871 1.193347
2011-02-24 07:22:37 51°13.662 2°55.961 13.8487 0.0195 0.100871 1.193347
2011-02-24 07:22:42 51°13.662 2°55.961 13.8458 0.0195 0.100873 1.158523
2011-02-24 07:22:47 51°13.662 2°55.961 13.8419 0.0195 0.100871 1.193347
2011-02-24 07:22:52 51°13.663 2°55.961 13.8383 0.0195 0.100871 1.158523
2011-02-24 07:22:57 51°13.663 2°55.961 13.8342 0.0195 0.100869 1.158523
2011-02-24 07:23:02 51°13.663 2°55.961 13.8356 0.0195 0.100869 1.158523
2011-02-24 07:23:07 51°13.663 2°55.961 13.8368 0.0195 0.100869 1.158523
2011-02-24 07:23:12 51°13.663 2°55.961 13.8363 0.0195 0.100869 1.158523
2011-02-24 07:23:17 51°13.663 2°55.961 13.8371 0.0195 0.100867 1.193347
2011-02-24 07:23:22 51°13.663 2°55.961 13.837 0.0195 0.100867 1.193347
2011-02-24 07:23:27 51°13.663 2°55.961 13.8389 0.0195 0.100866 1.158523
2011-02-24 07:23:32 51°13.663 2°55.961 13.8362 0.0195 0.100866 1.158523
2011-02-24 07:23:37 51°13.663 2°55.961 13.8382 0.0195 0.100866 1.158523
2011-02-24 07:23:42 51°13.663 2°55.961 13.8388 0.0195 0.100865 1.158523
2011-02-24 07:23:47 51°13.663 2°55.961 13.841 0.0195 0.100865 1.158523
2011-02-24 07:23:51 51°13.663 2°55.961 13.8387 0.0195 0.100862 1.158523
2011-02-24 07:23:56 51°13.663 2°55.961 13.8368 0.0195 0.100863 1.158523
2011-02-24 07:24:02 51°13.663 2°55.961 13.8368 0.0195 0.100863 1.158523
2011-02-24 07:24:07 51°13.663 2°55.961 13.8366 0.0195 0.100863 1.158523
2011-02-24 07:24:12 51°13.664 2°55.961 13.8369 0.0195 0.100862 1.158523
2011-02-24 07:24:17 51°13.663 2°55.96 13.838 0.0195 0.100861 1.158523
2011-02-24 07:24:22 51°13.663 2°55.96 13.8368 0.0195 0.100861 1.158523
2011-02-24 07:24:27 51°13.663 2°55.96 13.8383 0.0195 0.100859 1.158523
2011-02-24 07:24:32 51°13.663 2°55.96 13.8359 0.0195 0.100859 1.158523
2011-02-24 07:24:37 51°13.663 2°55.96 13.8354 0.0195 0.100859 1.158523
2011-02-24 07:24:42 51°13.663 2°55.96 13.8292 0.0195 0.100858 1.193347
2011-02-24 07:24:47 51°13.663 2°55.96 13.8266 0.0195 0.100858 1.158523
2011-02-24 07:24:51 51°13.663 2°55.96 13.8281 0.0195 0.100858 1.193347
2011-02-24 07:24:57 51°13.663 2°55.96 13.8278 0.0195 0.100857 1.158523
2011-02-24 07:25:02 51°13.663 2°55.96 13.8134 0.0195 0.100857 1.193347
2011-02-24 07:25:07 51°13.663 2°55.96 13.8144 0.0195 0.100857 1.193347
2011-02-24 07:25:12 51°13.663 2°55.96 13.8082 0.0195 0.100857 1.193347
2011-02-24 07:25:17 51°13.663 2°55.96 13.8049 0.0195 0.100855 1.193347
2011-02-24 07:25:22 51°13.663 2°55.96 13.807 0.0195 0.100855 1.193347
2011-02-24 07:25:26 51°13.663 2°55.96 13.8072 0.0195 0.100854 1.193347
2011-02-24 07:25:31 51°13.663 2°55.96 13.8119 0.0195 0.100854 1.193347
2011-02-24 07:25:37 51°13.663 2°55.96 13.8143 0.0195 0.100854 1.193347
2011-02-24 07:25:42 51°13.663 2°55.96 13.8108 0.0195 0.100854 1.158523
2011-02-24 07:25:47 51°13.663 2°55.96 13.8072 0.0195 0.100853 1.158523
2011-02-24 07:25:52 51°13.663 2°55.96 13.8058 0.0195 0.100854 1.158523
2011-02-24 07:25:57 51°13.663 2°55.959 13.8056 0.0195 0.100851 1.158523
2011-02-24 07:26:02 51°13.663 2°55.959 13.807 0.0195 0.100853 1.193347
2011-02-24 07:26:07 51°13.663 2°55.959 13.8072 0.0195 0.100853 1.193347
2011-02-24 07:26:12 51°13.663 2°55.959 13.8084 0.0195 0.100851 1.193347
2011-02-24 07:26:17 51°13.663 2°55.959 13.8099 0.0195 0.100851 1.193347
2011-02-24 07:26:22 51°13.663 2°55.959 13.8134 0.0195 0.100851 1.193347
2011-02-24 07:26:27 51°13.663 2°55.959 13.8167 0.0195 0.100851 1.158523
2011-02-24 07:26:32 51°13.663 2°55.959 13.816 0.0195 0.10085 1.158523
2011-02-24 07:26:37 51°13.663 2°55.959 13.8199 0.0195 0.10085 1.158523
2011-02-24 07:26:42 51°13.663 2°55.959 13.8244 0.0195 0.10085 1.158523
2011-02-24 07:26:47 51°13.663 2°55.959 13.8295 0.0195 0.100849 1.158523
2011-02-24 07:26:52 51°13.663 2°55.959 13.8363 0.0195 0.100849 1.193347
2011-02-24 07:26:57 51°13.663 2°55.959 13.8453 0.0195 0.10085 1.123699
2011-02-24 07:27:01 51°13.663 2°55.959 13.8404 0.0195 0.100849 1.158523
2011-02-24 07:27:06 51°13.663 2°55.959 13.8323 0.0195 0.100849 1.158523
2011-02-24 07:27:12 51°13.663 2°55.959 13.825 0.0195 0.10085 1.158523
2011-02-24 07:27:17 51°13.663 2°55.959 13.8233 0.0195 0.100849 1.193347
2011-02-24 07:27:22 51°13.664 2°55.96 13.8268 0.0195 0.100847 1.158523
2011-02-24 07:27:27 51°13.664 2°55.96 13.8306 0.0195 0.100847 1.158523
2011-02-24 07:27:32 51°13.664 2°55.96 13.8326 0.0195 0.100846 1.158523
2011-02-24 07:27:37 51°13.664 2°55.96 13.837 0.0195 0.100846 1.158523
2011-02-24 07:27:41 51°13.664 2°55.96 13.8332 0.0195 0.100847 1.193347
2011-02-24 07:27:46 51°13.664 2°55.96 13.8283 0.0195 0.100845 1.158523
2011-02-24 07:27:52 51°13.664 2°55.96 13.7818 0.0195 0.100845 1.193347
2011-02-24 07:27:57 51°13.663 2°55.96 13.769 0.0195 0.100845 1.158523
2011-02-24 07:28:02 51°13.663 2°55.96 13.7598 0.0195 0.100845 1.193347
2011-02-24 07:28:07 51°13.663 2°55.96 13.7771 0.0195 0.100845 1.193347
2011-02-24 07:28:12 51°13.663 2°55.96 13.7843 0.0195 0.100845 1.158523
2011-02-24 07:28:17 51°13.663 2°55.96 13.7928 0.0195 0.100844 1.193347
2011-02-24 07:28:22 51°13.663 2°55.96 13.7987 0.0195 0.100842 1.158523
2011-02-24 07:28:27 51°13.663 2°55.96 13.802 0.0195 0.100844 1.193347
2011-02-24 07:28:32 51°13.663 2°55.96 13.7927 0.0195 0.100844 1.158523
2011-02-24 07:28:37 51°13.663 2°55.96 13.7923 0.0195 0.100844 1.158523
2011-02-24 07:28:42 51°13.663 2°55.96 13.779 0.0195 0.100842 1.193347
2011-02-24 07:28:47 51°13.663 2°55.96 13.7883 0.0195 0.100842 1.158523
2011-02-24 07:28:52 51°13.663 2°55.96 13.7979 0.0195 0.100841 1.193347
2011-02-24 07:28:57 51°13.663 2°55.96 13.8064 0.0195 0.10084 1.158523
2011-02-24 07:29:02 51°13.663 2°55.96 13.8141 0.0195 0.100841 1.158523
2011-02-24 07:29:07 51°13.663 2°55.96 13.8176 0.0195 0.100841 1.158523
2011-02-24 07:29:11 51°13.663 2°55.96 13.8215 0.0195 0.10084 1.193347
2011-02-24 07:29:17 51°13.663 2°55.96 13.8248 0.0195 0.10084 1.193347
2011-02-24 07:29:21 51°13.663 2°55.96 13.8271 0.0195 0.100838 1.158523
2011-02-24 07:29:27 51°13.663 2°55.959 13.8271 0.0195 0.100838 1.158523
2011-02-24 07:29:32 51°13.663 2°55.959 13.8268 0.0195 0.100837 1.193347
2011-02-24 07:29:37 51°13.663 2°55.96 13.8255 0.0195 0.100837 1.193347
2011-02-24 07:29:42 51°13.663 2°55.959 13.8227 0.0195 0.100837 1.193347
2011-02-24 07:29:47 51°13.662 2°55.959 13.8257 0.0195 0.100837 1.193347
2011-02-24 07:29:52 51°13.662 2°55.959 13.8273 0.0195 0.100837 1.158523
2011-02-24 07:29:56 51°13.662 2°55.959 13.8315 0.0195 0.100834 1.158523
2011-02-24 07:30:01 51°13.662 2°55.959 13.8317 0.0195 0.100834 1.193347
2011-02-24 07:30:07 51°13.662 2°55.959 13.833 0.0195 0.100834 1.193347
2011-02-24 07:30:12 51°13.662 2°55.959 13.8321 0.0195 0.100834 1.193347
2011-02-24 07:30:17 51°13.662 2°55.959 13.8322 0.0195 0.100834 1.158523
2011-02-24 07:30:22 51°13.662 2°55.959 13.8293 0.0195 0.100833 1.158523
2011-02-24 07:30:27 51°13.662 2°55.959 13.8297 0.0195 0.100832 1.158523
2011-02-24 07:30:32 51°13.662 2°55.959 13.8302 0.0195 0.10083 1.158523
2011-02-24 07:30:37 51°13.662 2°55.959 13.8323 0.0195 0.10083 1.158523
2011-02-24 07:30:42 51°13.662 2°55.959 13.8359 0.0195 0.100829 1.158523
2011-02-24 07:30:47 51°13.662 2°55.959 13.8396 0.0195 0.100829 1.158523
2011-02-24 07:30:52 51°13.662 2°55.96 13.8409 0.0195 0.100829 1.158523
2011-02-24 07:30:56 51°13.662 2°55.96 13.84 0.0195 0.100828 1.158523
2011-02-24 07:31:01 51°13.662 2°55.96 13.8318 0.0195 0.100828 1.193347
2011-02-24 07:31:06 51°13.662 2°55.96 13.8267 0.0195 0.100828 1.193347
2011-02-24 07:31:12 51°13.662 2°55.959 13.8289 0.0195 0.100825 1.158523
2011-02-24 07:31:17 51°13.662 2°55.959 13.8281 0.0195 0.100825 1.193347
2011-02-24 07:31:22 51°13.662 2°55.959 13.8279 0.0195 0.100824 1.193347
2011-02-24 07:31:27 51°13.662 2°55.959 13.8316 0.0195 0.100822 1.158523
2011-02-24 07:31:32 51°13.662 2°55.959 13.8337 0.0195 0.100821 1.158523
2011-02-24 07:31:37 51°13.662 2°55.959 13.8313 0.0195 0.100821 1.158523
2011-02-24 07:31:42 51°13.662 2°55.959 13.8289 0.0195 0.100821 1.193347
2011-02-24 07:31:47 51°13.662 2°55.959 13.8202 0.0195 0.100821 1.193347
2011-02-24 07:31:52 51°13.662 2°55.959 13.8009 0.0195 0.100818 1.158523
2011-02-24 07:31:57 51°13.662 2°55.959 13.7921 0.0195 0.100817 1.193347
2011-02-24 07:32:02 51°13.662 2°55.959 13.7783 0.0195 0.100816 1.158523
2011-02-24 07:32:07 51°13.662 2°55.959 13.7778 0.0195 0.100816 1.158523
2011-02-24 07:32:11 51°13.662 2°55.959 13.7996 0.0195 0.100814 1.193347
2011-02-24 07:32:16 51°13.662 2°55.959 13.8042 0.0195 0.100814 1.158523
2011-02-24 07:32:22 51°13.662 2°55.959 13.8087 0.0195 0.100813 1.158523
2011-02-24 07:32:27 51°13.662 2°55.959 13.815 0.0195 0.100811 1.158523
2011-02-24 07:32:32 51°13.662 2°55.959 13.8203 0.0195 0.100811 1.193347
2011-02-24 07:32:37 51°13.662 2°55.96 13.8241 0.0195 0.100811 1.193347
2011-02-24 07:32:42 51°13.662 2°55.959 13.8235 0.0195 0.100808 1.158523
2011-02-24 07:32:47 51°13.662 2°55.959 13.8257 0.0195 0.100808 1.158523
2011-02-24 07:32:52 51°13.662 2°55.96 13.8188 0.0195 0.100807 1.158523
2011-02-24 07:32:57 51°13.662 2°55.96 13.8227 0.0195 0.100804 1.158523
2011-02-24 07:33:02 51°13.662 2°55.96 13.8246 0.0195 0.100804 1.158523
2011-02-24 07:33:06 51°13.662 2°55.96 13.8219 0.0195 0.100804 1.158523
2011-02-24 07:33:11 51°13.662 2°55.96 13.8235 0.0195 0.100804 1.158523
2011-02-24 07:33:16 51°13.662 2°55.96 13.8267 0.0195 0.100801 1.158523
2011-02-24 07:33:22 51°13.662 2°55.959 13.8297 0.0195 0.1008 1.193347
2011-02-24 07:33:26 51°13.662 2°55.959 13.8302 0.0195 0.100799 1.158523
2011-02-24 07:33:31 51°13.662 2°55.959 13.8344 0.0195 0.100799 1.158523
2011-02-24 07:33:36 51°13.662 2°55.96 13.8292 0.0195 0.100799 1.158523
2011-02-24 07:33:42 51°13.662 2°55.96 13.8292 0.0195 0.100797 1.158523
2011-02-24 07:33:47 51°13.662 2°55.96 13.8312 0.0195 0.100796 1.193347
2011-02-24 07:33:52 51°13.662 2°55.96 13.8318 0.0195 0.100795 1.158523
2011-02-24 07:33:57 51°13.662 2°55.96 13.8319 0.0195 0.100793 1.193347
2011-02-24 07:34:02 51°13.662 2°55.96 13.8331 0.0195 0.100792 1.158523
2011-02-24 07:34:07 51°13.662 2°55.96 13.8348 0.0195 0.100792 1.158523
2011-02-24 07:34:12 51°13.662 2°55.96 13.8428 0.0195 0.100791 1.158523
2011-02-24 07:34:17 51°13.662 2°55.96 13.8555 0.0195 0.100789 1.158523
2011-02-24 07:34:21 51°13.662 2°55.959 13.8867 0.0195 0.100787 1.158523
2011-02-24 07:34:27 51°13.662 2°55.96 13.8944 0.0195 0.100787 1.158523
2011-02-24 07:34:32 51°13.662 2°55.96 13.8951 0.0195 0.100785 1.193347
2011-02-24 07:34:37 51°13.662 2°55.96 13.8845 0.0195 0.100785 1.193347
2011-02-24 07:34:42 51°13.662 2°55.96 13.8712 0.0195 0.100784 1.158523
2011-02-24 07:34:47 51°13.661 2°55.96 13.8635 0.0195 0.100783 1.193347
2011-02-24 07:34:52 51°13.662 2°55.96 13.866 0.0195 0.100781 1.158523
2011-02-24 07:34:57 51°13.662 2°55.96 13.8599 0.0195 0.10078 1.158523
2011-02-24 07:35:02 51°13.662 2°55.96 13.8598 0.0195 0.10078 1.158523
2011-02-24 07:35:06 51°13.661 2°55.96 13.8553 0.0195 0.10078 1.158523
2011-02-24 07:35:12 51°13.661 2°55.96 13.851 0.0195 0.100778 1.158523
2011-02-24 07:35:17 51°13.662 2°55.96 13.8528 0.0195 0.100776 1.158523
2011-02-24 07:35:22 51°13.662 2°55.961 13.8519 0.0195 0.100775 1.158523
2011-02-24 07:35:27 51°13.662 2°55.96 13.8527 0.0195 0.100772 1.193347
2011-02-24 07:35:32 51°13.662 2°55.961 13.8549 0.0195 0.100771 1.158523
2011-02-24 07:35:36 51°13.662 2°55.961 13.8566 0.0195 0.100771 1.158523
2011-02-24 07:35:41 51°13.662 2°55.961 13.8576 0.0195 0.100771 1.158523
2011-02-24 07:35:46 51°13.662 2°55.961 13.8596 0.0195 0.10077 1.158523
2011-02-24 07:35:52 51°13.662 2°55.96 13.8598 0.0195 0.100767 1.193347
2011-02-24 07:35:57 51°13.662 2°55.96 13.8594 0.0195 0.100767 1.158523
2011-02-24 07:36:02 51°13.662 2°55.961 13.8571 0.0195 0.100764 1.193347
2011-02-24 07:36:07 51°13.662 2°55.961 13.8567 0.0195 0.100764 1.193347
2011-02-24 07:36:12 51°13.662 2°55.961 13.8539 0.0195 0.100763 1.193347
2011-02-24 07:36:17 51°13.662 2°55.961 13.8508 0.0195 0.100762 1.158523
2011-02-24 07:36:22 51°13.662 2°55.961 13.8512 0.0195 0.10076 1.158523
2011-02-24 07:36:27 51°13.662 2°55.961 13.8535 0.0195 0.100759 1.158523
2011-02-24 07:36:32 51°13.662 2°55.96 13.8552 0.0195 0.100758 1.158523
2011-02-24 07:36:37 51°13.662 2°55.96 13.8567 0.0195 0.100758 1.158523
2011-02-24 07:36:42 51°13.662 2°55.961 13.8582 0.0195 0.100758 1.158523
2011-02-24 07:36:47 51°13.662 2°55.961 13.8586 0.0195 0.100755 1.193347
2011-02-24 07:36:52 51°13.662 2°55.96 13.8616 0.0195 0.100754 1.158523
2011-02-24 07:36:57 51°13.662 2°55.96 13.8598 0.0195 0.100752 1.193347
2011-02-24 07:37:02 51°13.662 2°55.961 13.8598 0.0195 0.100751 1.158523
2011-02-24 07:37:07 51°13.662 2°55.96 13.8625 0.0195 0.100751 1.158523
2011-02-24 07:37:12 51°13.662 2°55.96 13.8565 0.0195 0.10075 1.158523
2011-02-24 07:37:17 51°13.662 2°55.96 13.8586 0.0195 0.100747 1.123699
2011-02-24 07:37:22 51°13.662 2°55.96 13.8562 0.0195 0.100746 1.123699
2011-02-24 07:37:27 51°13.662 2°55.96 13.8594 0.0195 0.100745 1.158523
2011-02-24 07:37:32 51°13.662 2°55.96 13.8594 0.0195 0.100745 1.193347
2011-02-24 07:37:37 51°13.662 2°55.96 13.8617 0.0195 0.100745 1.193347
2011-02-24 07:37:42 51°13.662 2°55.96 13.8607 0.0195 0.100745 1.193347
2011-02-24 07:37:47 51°13.662 2°55.961 13.8641 0.0195 0.100742 1.158523
2011-02-24 07:37:52 51°13.662 2°55.961 13.8629 0.0195 0.100739 1.158523
2011-02-24 07:37:56 51°13.662 2°55.961 13.8655 0.0195 0.100738 1.158523
2011-02-24 07:38:01 51°13.662 2°55.96 13.8639 0.0195 0.100737 1.158523
2011-02-24 07:38:06 51°13.662 2°55.96 13.8647 0.0195 0.100737 1.158523
2011-02-24 07:38:11 51°13.662 2°55.96 13.8654 0.0195 0.100737 1.193347
2011-02-24 07:38:16 51°13.662 2°55.961 13.8657 0.0195 0.100735 1.158523
2011-02-24 07:38:22 51°13.662 2°55.96 13.8657 0.0195 0.100734 1.158523
2011-02-24 07:38:27 51°13.662 2°55.96 13.8654 0.0195 0.100734 1.158523
2011-02-24 07:38:32 51°13.662 2°55.96 13.8667 0.0195 0.100733 1.193347
2011-02-24 07:38:37 51°13.662 2°55.96 13.8669 0.0195 0.100733 1.193347
2011-02-24 07:38:42 51°13.662 2°55.961 13.8637 0.0195 0.100731 1.158523
2011-02-24 07:38:47 51°13.662 2°55.961 13.8638 0.0195 0.10073 1.193347
2011-02-24 07:38:52 51°13.662 2°55.961 13.8628 0.0195 0.100729 1.193347
2011-02-24 07:38:57 51°13.662 2°55.961 13.8628 0.0195 0.100727 1.193347
2011-02-24 07:39:02 51°13.662 2°55.961 13.8586 0.0195 0.100726 1.193347
2011-02-24 07:39:07 51°13.662 2°55.961 13.857 0.0195 0.100726 1.193347
2011-02-24 07:39:12 51°13.662 2°55.96 13.8572 0.0195 0.100725 1.158523
2011-02-24 07:39:16 51°13.662 2°55.96 13.8614 0.0195 0.100723 1.158523
2011-02-24 07:39:22 51°13.662 2°55.96 13.8594 0.0195 0.100723 1.193347
2011-02-24 07:39:26 51°13.662 2°55.96 13.8613 0.0195 0.100722 1.158523
2011-02-24 07:39:32 51°13.662 2°55.96 13.8628 0.0195 0.100721 1.158523
2011-02-24 07:39:36 51°13.662 2°55.961 13.8652 0.0195 0.100721 1.158523
2011-02-24 07:39:41 51°13.662 2°55.961 13.8667 0.0195 0.100718 1.193347
2011-02-24 07:39:46 51°13.662 2°55.961 13.8675 0.0195 0.100718 1.158523
2011-02-24 07:39:51 51°13.662 2°55.961 13.8672 0.0195 0.100718 1.193347
2011-02-24 07:39:56 51°13.662 2°55.961 13.8657 0.0195 0.100716 1.158523
2011-02-24 07:40:02 51°13.662 2°55.961 13.8675 0.0195 0.100716 1.193347
2011-02-24 07:40:07 51°13.662 2°55.961 13.8658 0.0195 0.100716 1.193347
2011-02-24 07:40:12 51°13.662 2°55.961 13.8696 0.0195 0.100716 1.123699
2011-02-24 07:40:17 51°13.662 2°55.961 13.8714 0.0195 0.100714 1.193347
2011-02-24 07:40:22 51°13.662 2°55.961 13.8709 0.0195 0.100713 1.158523
2011-02-24 07:40:27 51°13.662 2°55.961 13.8734 0.0195 0.100713 1.193347
2011-02-24 07:40:32 51°13.662 2°55.961 13.8745 0.0195 0.100712 1.158523
2011-02-24 07:40:37 51°13.662 2°55.961 13.8757 0.0195 0.100712 1.158523
2011-02-24 07:40:42 51°13.662 2°55.96 13.8759 0.0195 0.10071 1.193347
2011-02-24 07:40:47 51°13.662 2°55.96 13.875 0.0195 0.10071 1.193347
2011-02-24 07:40:52 51°13.662 2°55.961 13.8758 0.0195 0.100709 1.158523
2011-02-24 07:40:56 51°13.662 2°55.961 13.876 0.0195 0.100708 1.158523
2011-02-24 07:41:02 51°13.662 2°55.961 13.877 0.0195 0.100708 1.158523
2011-02-24 07:41:07 51°13.662 2°55.961 13.8739 0.0195 0.100708 1.158523
2011-02-24 07:41:12 51°13.662 2°55.961 13.8748 0.0195 0.100705 1.158523
2011-02-24 07:41:17 51°13.662 2°55.961 13.874 0.0195 0.100705 1.158523
2011-02-24 07:41:22 51°13.662 2°55.961 13.8766 0.0195 0.100704 1.158523
2011-02-24 07:41:27 51°13.662 2°55.961 13.8842 0.0195 0.100705 1.158523
2011-02-24 07:41:32 51°13.662 2°55.961 13.8889 0.0195 0.100704 1.158523
2011-02-24 07:41:37 51°13.662 2°55.961 13.8975 0.0195 0.100704 1.158523
2011-02-24 07:41:42 51°13.662 2°55.961 13.894 0.0195 0.100701 1.158523
2011-02-24 07:41:47 51°13.662 2°55.961 13.8912 0.0195 0.100702 1.158523
2011-02-24 07:41:52 51°13.662 2°55.961 13.8976 0.0195 0.100701 1.123699
2011-02-24 07:41:57 51°13.662 2°55.961 13.9389 0.0195 0.100701 1.158523
2011-02-24 07:42:02 51°13.662 2°55.961 13.902 0.0195 0.1007 1.158523
2011-02-24 07:42:07 51°13.662 2°55.961 13.9152 0.0195 0.1007 1.158523
2011-02-24 07:42:12 51°13.662 2°55.961 13.8884 0.0195 0.100701 1.158523
2011-02-24 07:42:17 51°13.662 2°55.961 13.9049 0.0195 0.100698 1.158523
2011-02-24 07:42:22 51°13.662 2°55.961 13.8958 0.0195 0.100698 1.193347
2011-02-24 07:42:27 51°13.662 2°55.962 13.8947 0.0195 0.100697 1.158523
2011-02-24 07:42:32 51°13.662 2°55.961 13.8961 0.0195 0.100697 1.193347
2011-02-24 07:42:36 51°13.662 2°55.961 13.8917 0.0195 0.100697 1.193347
2011-02-24 07:42:42 51°13.662 2°55.962 13.8991 0.0195 0.100697 1.158523
2011-02-24 07:42:47 51°13.662 2°55.962 13.8954 0.0195 0.100696 1.158523
2011-02-24 07:42:52 51°13.662 2°55.962 13.8959 0.0195 0.100696 1.158523
2011-02-24 07:42:57 51°13.662 2°55.962 13.9037 0.0195 0.100694 1.158523
2011-02-24 07:43:02 51°13.662 2°55.961 13.8997 0.0195 0.100693 1.158523
2011-02-24 07:43:07 51°13.662 2°55.961 13.8911 0.0195 0.100693 1.158523
2011-02-24 07:43:12 51°13.662 2°55.961 13.8939 0.0195 0.100693 1.158523
2011-02-24 07:43:17 51°13.662 2°55.961 13.8919 0.0195 0.100693 1.158523
2011-02-24 07:43:22 51°13.662 2°55.962 13.8841 0.0195 0.100691 1.158523
2011-02-24 07:43:27 51°13.662 2°55.962 13.8957 0.0195 0.100692 1.158523
2011-02-24 07:43:31 51°13.662 2°55.962 13.9056 0.0195 0.100691 1.193347
2011-02-24 07:43:36 51°13.662 2°55.962 13.8948 0.0195 0.100691 1.193347
2011-02-24 07:43:42 51°13.662 2°55.962 13.8911 0.0195 0.100689 1.158523
2011-02-24 07:43:47 51°13.662 2°55.962 13.8938 0.0195 0.100688 1.158523
2011-02-24 07:43:52 51°13.662 2°55.961 13.9027 0.0195 0.100689 1.193347
2011-02-24 07:43:57 51°13.662 2°55.961 13.9047 0.0195 0.100688 1.158523
2011-02-24 07:44:02 51°13.662 2°55.961 13.9141 0.0195 0.100688 1.158523
2011-02-24 07:44:07 51°13.662 2°55.961 13.9046 0.0195 0.100688 1.158523
2011-02-24 07:44:12 51°13.662 2°55.961 13.912 0.0195 0.100685 1.193347
2011-02-24 07:44:17 51°13.662 2°55.961 13.9121 0.0195 0.100685 1.158523
2011-02-24 07:44:22 51°13.662 2°55.962 13.9175 0.0195 0.100688 1.193347
2011-02-24 07:44:27 51°13.662 2°55.961 13.9119 0.0195 0.100687 1.193347
2011-02-24 07:44:32 51°13.662 2°55.961 13.912 0.0195 0.100684 1.158523
2011-02-24 07:44:37 51°13.662 2°55.961 13.9033 0.0195 0.100684 1.158523
2011-02-24 07:44:42 51°13.663 2°55.961 13.9173 0.0195 0.100684 1.193347
2011-02-24 07:44:47 51°13.663 2°55.961 13.9093 0.0195 0.100684 1.158523
2011-02-24 07:44:52 51°13.662 2°55.961 13.9012 0.0195 0.100684 1.158523
2011-02-24 07:44:57 51°13.662 2°55.961 13.8825 0.0195 0.100681 1.123699
2011-02-24 07:45:02 51°13.662 2°55.961 13.878 0.0195 0.100681 1.158523
2011-02-24 07:45:07 51°13.662 2°55.961 13.8798 0.0195 0.100681 1.158523
2011-02-24 07:45:12 51°13.663 2°55.961 13.8834 0.0195 0.10068 1.158523
2011-02-24 07:45:17 51°13.663 2°55.961 13.885 0.0195 0.100679 1.158523
2011-02-24 07:45:22 51°13.663 2°55.961 13.8847 0.0195 0.100679 1.158523
2011-02-24 07:45:27 51°13.663 2°55.961 13.8869 0.0195 0.100677 1.158523
2011-02-24 07:45:32 51°13.663 2°55.961 13.8942 0.0195 0.100676 1.158523
2011-02-24 07:45:37 51°13.663 2°55.961 13.9015 0.0195 0.100676 1.158523
2011-02-24 07:45:42 51°13.663 2°55.961 13.903 0.0195 0.100676 1.193347
2011-02-24 07:45:47 51°13.663 2°55.961 13.897 0.0195 0.100676 1.158523
2011-02-24 07:45:52 51°13.663 2°55.961 13.8971 0.0195 0.100673 1.193347
2011-02-24 07:45:57 51°13.663 2°55.961 13.8884 0.0195 0.100672 1.158523
2011-02-24 07:46:02 51°13.663 2°55.961 13.8886 0.0195 0.100671 1.158523
2011-02-24 07:46:07 51°13.663 2°55.961 13.8954 0.0195 0.100671 1.158523
2011-02-24 07:46:12 51°13.663 2°55.961 13.8904 0.0195 0.100672 1.158523
2011-02-24 07:46:16 51°13.663 2°55.961 13.8972 0.0195 0.100671 1.158523
2011-02-24 07:46:21 51°13.663 2°55.961 13.8887 0.0195 0.100669 1.193347
2011-02-24 07:46:26 51°13.663 2°55.961 13.8937 0.0195 0.100668 1.193347
2011-02-24 07:46:31 51°13.663 2°55.961 13.8903 0.0195 0.100667 1.158523
2011-02-24 07:46:37 51°13.663 2°55.962 13.8903 0.0195 0.100667 1.158523
2011-02-24 07:46:42 51°13.663 2°55.961 13.8927 0.0195 0.100667 1.158523
2011-02-24 07:46:47 51°13.663 2°55.961 13.8915 0.0195 0.100666 1.158523
2011-02-24 07:46:52 51°13.663 2°55.961 13.8935 0.0195 0.100664 1.193347
2011-02-24 07:46:57 51°13.663 2°55.961 13.8939 0.0195 0.100664 1.158523
2011-02-24 07:47:02 51°13.663 2°55.961 13.8965 0.0195 0.100663 1.158523
2011-02-24 07:47:07 51°13.663 2°55.961 13.9011 0.0195 0.100663 1.158523
2011-02-24 07:47:12 51°13.663 2°55.961 13.9042 0.0195 0.10066 1.193347
2011-02-24 07:47:17 51°13.663 2°55.961 13.9015 0.0195 0.10066 1.158523
2011-02-24 07:47:22 51°13.662 2°55.961 13.9023 0.0195 0.100659 1.193347
2011-02-24 07:47:27 51°13.662 2°55.961 13.8998 0.0195 0.100659 1.158523
2011-02-24 07:47:32 51°13.662 2°55.961 13.9023 0.0195 0.100658 1.193347
2011-02-24 07:47:37 51°13.662 2°55.961 13.9009 0.0195 0.100658 1.193347
2011-02-24 07:47:42 51°13.663 2°55.961 13.9079 0.0195 0.100656 1.158523
2011-02-24 07:47:47 51°13.662 2°55.961 13.8998 0.0195 0.100656 1.158523
2011-02-24 07:47:51 51°13.662 2°55.961 13.8959 0.0195 0.100656 1.158523
2011-02-24 07:47:56 51°13.663 2°55.961 13.8921 0.0195 0.100654 1.158523
2011-02-24 07:48:01 51°13.663 2°55.961 13.8936 0.0195 0.100652 1.158523
2011-02-24 07:48:07 51°13.662 2°55.961 13.895 0.0195 0.100652 1.158523
2011-02-24 07:48:12 51°13.662 2°55.961 13.8962 0.0195 0.100652 1.158523
2011-02-24 07:48:17 51°13.662 2°55.961 13.8948 0.0195 0.100651 1.193347
2011-02-24 07:48:22 51°13.662 2°55.961 13.8936 0.0195 0.10065 1.193347
2011-02-24 07:48:27 51°13.662 2°55.961 13.8943 0.0195 0.100648 1.158523
2011-02-24 07:48:32 51°13.662 2°55.961 13.8973 0.0195 0.100647 1.158523
2011-02-24 07:48:37 51°13.662 2°55.961 13.8992 0.0195 0.100647 1.158523
2011-02-24 07:48:42 51°13.662 2°55.961 13.9007 0.0195 0.100646 1.158523
2011-02-24 07:48:47 51°13.662 2°55.961 13.9004 0.0195 0.100645 1.158523
2011-02-24 07:48:52 51°13.662 2°55.961 13.903 0.0195 0.100645 1.193347
2011-02-24 07:48:57 51°13.662 2°55.96 13.9025 0.0195 0.100645 1.158523
2011-02-24 07:49:02 51°13.662 2°55.96 13.9032 0.0195 0.100643 1.158523
2011-02-24 07:49:07 51°13.663 2°55.96 13.9066 0.0195 0.100643 1.158523
2011-02-24 07:49:12 51°13.663 2°55.961 13.904 0.0195 0.100643 1.193347
2011-02-24 07:49:17 51°13.662 2°55.961 13.8994 0.0195 0.100642 1.193347
2011-02-24 07:49:22 51°13.662 2°55.96 13.9021 0.0195 0.100639 1.158523
2011-02-24 07:49:27 51°13.662 2°55.961 13.8969 0.0195 0.100641 1.193347
2011-02-24 07:49:32 51°13.662 2°55.961 13.8944 0.0195 0.100639 1.158523
2011-02-24 07:49:37 51°13.662 2°55.96 13.8909 0.0195 0.100639 1.158523
2011-02-24 07:49:42 51°13.662 2°55.96 13.8962 0.0195 0.100639 1.193347
2011-02-24 07:49:47 51°13.662 2°55.96 13.8971 0.0195 0.100638 1.158523
2011-02-24 07:49:52 51°13.662 2°55.96 13.8962 0.0195 0.100637 1.158523
2011-02-24 07:49:57 51°13.662 2°55.96 13.8926 0.0195 0.100637 1.193347
2011-02-24 07:50:02 51°13.661 2°55.96 13.8902 0.0195 0.100635 1.193347
2011-02-24 07:50:07 51°13.661 2°55.96 13.8907 0.0195 0.100635 1.193347
2011-02-24 07:50:12 51°13.661 2°55.96 13.8907 0.0195 0.100635 1.158523
2011-02-24 07:50:17 51°13.662 2°55.961 13.8909 0.0195 0.100634 1.193347
2011-02-24 07:50:22 51°13.662 2°55.961 13.8914 0.0195 0.100633 1.193347
2011-02-24 07:50:27 51°13.662 2°55.961 13.8893 0.0195 0.100633 1.158523
2011-02-24 07:50:31 51°13.662 2°55.961 13.8873 0.0195 0.100633 1.158523
2011-02-24 07:50:37 51°13.662 2°55.961 13.8855 0.0195 0.100633 1.158523
2011-02-24 07:50:42 51°13.662 2°55.961 13.8819 0.0195 0.100631 1.158523
2011-02-24 07:50:46 51°13.662 2°55.961 13.8809 0.0195 0.100631 1.158523
2011-02-24 07:50:51 51°13.662 2°55.961 13.8793 0.0195 0.100631 1.158523
2011-02-24 07:50:56 51°13.662 2°55.961 13.8811 0.0195 0.100629 1.193347
2011-02-24 07:51:02 51°13.662 2°55.961 13.8831 0.0195 0.100629 1.158523
2011-02-24 07:51:07 51°13.662 2°55.961 13.8856 0.0195 0.100629 1.158523
2011-02-24 07:51:12 51°13.662 2°55.961 13.8862 0.0195 0.100629 1.158523
2011-02-24 07:51:17 51°13.661 2°55.961 13.8866 0.0195 0.100627 1.158523
2011-02-24 07:51:22 51°13.661 2°55.961 13.8853 0.0195 0.100627 1.158523
2011-02-24 07:51:27 51°13.661 2°55.961 13.8849 0.0195 0.100627 1.158523
2011-02-24 07:51:32 51°13.661 2°55.961 13.8868 0.0195 0.100626 1.158523
2011-02-24 07:51:37 51°13.661 2°55.961 13.8903 0.0195 0.100626 1.158523
2011-02-24 07:51:41 51°13.662 2°55.961 13.8933 0.0195 0.100626 1.158523
2011-02-24 07:51:46 51°13.661 2°55.961 13.8937 0.0195 0.100625 1.193347
2011-02-24 07:51:51 51°13.662 2°55.961 13.8958 0.0195 0.100623 1.193347
2011-02-24 07:51:56 51°13.662 2°55.961 13.8971 0.0195 0.100625 1.158523
2011-02-24 07:52:02 51°13.662 2°55.961 13.8985 0.0195 0.100623 1.158523
2011-02-24 07:52:07 51°13.662 2°55.961 13.901 0.0195 0.100623 1.158523
2011-02-24 07:52:12 51°13.662 2°55.961 13.9047 0.0195 0.100622 1.158523
2011-02-24 07:52:17 51°13.662 2°55.961 13.9091 0.0195 0.100622 1.193347
2011-02-24 07:52:22 51°13.662 2°55.961 13.9096 0.0195 0.100622 1.158523
2011-02-24 07:52:27 51°13.662 2°55.961 13.9056 0.0195 0.100621 1.193347
2011-02-24 07:52:32 51°13.662 2°55.961 13.9039 0.0195 0.10062 1.158523
2011-02-24 07:52:37 51°13.662 2°55.961 13.9031 0.0195 0.10062 1.158523
2011-02-24 07:52:42 51°13.662 2°55.961 13.9023 0.0195 0.10062 1.193347
2011-02-24 07:52:47 51°13.661 2°55.961 13.9011 0.0195 0.10062 1.193347
2011-02-24 07:52:52 51°13.661 2°55.961 13.9001 0.0195 0.100618 1.158523
2011-02-24 07:52:57 51°13.661 2°55.961 13.9061 0.0195 0.100618 1.158523
2011-02-24 07:53:02 51°13.661 2°55.961 13.9039 0.0195 0.100617 1.193347
2011-02-24 07:53:07 51°13.661 2°55.961 13.9065 0.0195 0.100617 1.193347
2011-02-24 07:53:12 51°13.661 2°55.961 13.9077 0.0195 0.100617 1.193347
2011-02-24 07:53:17 51°13.661 2°55.961 13.9047 0.0195 0.100617 1.158523
2011-02-24 07:53:22 51°13.661 2°55.961 13.899 0.0195 0.100616 1.158523
2011-02-24 07:53:27 51°13.662 2°55.961 13.8958 0.0195 0.100614 1.193347
2011-02-24 07:53:32 51°13.661 2°55.962 13.8936 0.0195 0.100616 1.158523
2011-02-24 07:53:37 51°13.661 2°55.961 13.8954 0.0195 0.100616 1.158523
2011-02-24 07:53:42 51°13.661 2°55.961 13.8971 0.0195 0.100614 1.193347
2011-02-24 07:53:47 51°13.661 2°55.961 13.8988 0.0195 0.100613 1.193347
2011-02-24 07:53:52 51°13.661 2°55.961 13.8993 0.0195 0.100612 1.158523
2011-02-24 07:53:57 51°13.661 2°55.961 13.9044 0.0195 0.100613 1.193347
2011-02-24 07:54:01 51°13.661 2°55.962 13.9081 0.0195 0.10061 1.158523
2011-02-24 07:54:07 51°13.661 2°55.961 13.9043 0.0195 0.10061 1.158523
2011-02-24 07:54:11 51°13.661 2°55.961 13.8989 0.0195 0.100612 1.193347
2011-02-24 07:54:16 51°13.661 2°55.962 13.9021 0.0195 0.10061 1.158523
2011-02-24 07:54:21 51°13.661 2°55.961 13.9028 0.0195 0.100609 1.193347
2011-02-24 07:54:27 51°13.661 2°55.961 13.8972 0.0195 0.100609 1.158523
2011-02-24 07:54:32 51°13.662 2°55.961 13.8937 0.0195 0.100608 1.193347
2011-02-24 07:54:37 51°13.662 2°55.961 13.8923 0.0195 0.100608 1.193347
2011-02-24 07:54:42 51°13.662 2°55.961 13.8932 0.0195 0.100608 1.158523
2011-02-24 07:54:47 51°13.662 2°55.962 13.8936 0.0195 0.100606 1.193347
2011-02-24 07:54:52 51°13.662 2°55.962 13.8983 0.0195 0.100606 1.193347
2011-02-24 07:54:57 51°13.662 2°55.962 13.9037 0.0195 0.100605 1.158523
2011-02-24 07:55:02 51°13.662 2°55.961 13.9076 0.0195 0.100605 1.158523
2011-02-24 07:55:07 51°13.661 2°55.961 13.9104 0.0195 0.100605 1.158523
2011-02-24 07:55:12 51°13.661 2°55.961 13.9169 0.0195 0.100605 1.193347
2011-02-24 07:55:16 51°13.661 2°55.961 13.9173 0.0195 0.100604 1.158523
2011-02-24 07:55:22 51°13.661 2°55.961 13.9178 0.0195 0.100604 1.158523
2011-02-24 07:55:26 51°13.662 2°55.961 13.9186 0.0195 0.100602 1.158523
2011-02-24 07:55:31 51°13.662 2°55.962 13.9139 0.0195 0.100602 1.158523
2011-02-24 07:55:37 51°13.662 2°55.962 13.9167 0.0195 0.100602 1.158523
2011-02-24 07:55:42 51°13.662 2°55.962 13.9177 0.0195 0.100602 1.193347
2011-02-24 07:55:47 51°13.662 2°55.962 13.9142 0.0195 0.100602 1.158523
2011-02-24 07:55:52 51°13.662 2°55.961 13.9151 0.0195 0.1006 1.193347
2011-02-24 07:55:57 51°13.662 2°55.961 13.9126 0.0195 0.1006 1.193347
2011-02-24 07:56:02 51°13.662 2°55.961 13.9144 0.0195 0.100599 1.193347
2011-02-24 07:56:07 51°13.662 2°55.961 13.9088 0.0195 0.100599 1.193347
2011-02-24 07:56:11 51°13.662 2°55.961 13.9112 0.0195 0.1006 1.158523
2011-02-24 07:56:17 51°13.662 2°55.961 13.9104 0.0195 0.100599 1.193347
2011-02-24 07:56:21 51°13.662 2°55.961 13.912 0.0195 0.100599 1.158523
2011-02-24 07:56:27 51°13.662 2°55.961 13.9144 0.0195 0.100597 1.193347
2011-02-24 07:56:32 51°13.662 2°55.961 13.9152 0.0195 0.100599 1.158523
2011-02-24 07:56:37 51°13.662 2°55.961 13.9142 0.0195 0.100599 1.158523
2011-02-24 07:56:42 51°13.662 2°55.961 13.9162 0.0195 0.100597 1.158523
2011-02-24 07:56:47 51°13.662 2°55.961 13.9184 0.0195 0.100597 1.193347
2011-02-24 07:56:52 51°13.662 2°55.961 13.9202 0.0195 0.100596 1.158523
2011-02-24 07:56:57 51°13.662 2°55.961 13.9297 0.0195 0.100595 1.193347
2011-02-24 07:57:01 51°13.662 2°55.961 13.9303 0.0195 0.100596 1.193347
2011-02-24 07:57:07 51°13.662 2°55.961 13.9294 0.0195 0.100596 1.193347
2011-02-24 07:57:12 51°13.662 2°55.961 13.928 0.0195 0.100593 1.193347
2011-02-24 07:57:16 51°13.662 2°55.961 13.9281 0.0195 0.100593 1.158523
2011-02-24 07:57:22 51°13.662 2°55.961 13.9286 0.0195 0.100593 1.193347
2011-02-24 07:57:26 51°13.662 2°55.961 13.9272 0.0195 0.100592 1.158523
2011-02-24 07:57:32 51°13.662 2°55.961 13.9246 0.0195 0.100593 1.158523
2011-02-24 07:57:36 51°13.662 2°55.961 13.9225 0.0195 0.100593 1.158523
2011-02-24 07:57:42 51°13.662 2°55.961 13.9303 0.0195 0.100593 1.193347
2011-02-24 07:57:46 51°13.662 2°55.961 13.9413 0.0195 0.100592 1.193347
2011-02-24 07:57:51 51°13.662 2°55.961 13.9342 0.0195 0.100591 1.158523
2011-02-24 07:57:57 51°13.662 2°55.961 13.9258 0.0195 0.100591 1.158523
2011-02-24 07:58:02 51°13.662 2°55.961 13.9282 0.0195 0.100591 1.158523
2011-02-24 07:58:07 51°13.662 2°55.961 13.9258 0.0195 0.100591 1.158523
2011-02-24 07:58:12 51°13.662 2°55.961 13.9272 0.0195 0.100591 1.193347
2011-02-24 07:58:17 51°13.662 2°55.961 13.9291 0.0195 0.100589 1.158523
2011-02-24 07:58:21 51°13.662 2°55.962 13.9296 0.0195 0.100588 1.158523
2011-02-24 07:58:27 51°13.662 2°55.961 13.9282 0.0195 0.100588 1.193347
2011-02-24 07:58:32 51°13.662 2°55.961 13.9286 0.0195 0.100588 1.158523
2011-02-24 07:58:37 51°13.662 2°55.962 13.93 0.0195 0.100588 1.158523
2011-02-24 07:58:42 51°13.662 2°55.962 13.9291 0.0195 0.100587 1.158523
2011-02-24 07:58:47 51°13.662 2°55.962 13.9282 0.0195 0.100587 1.193347
2011-02-24 07:58:52 51°13.662 2°55.962 13.929 0.0195 0.100585 1.193347
2011-02-24 07:58:57 51°13.662 2°55.962 13.9302 0.0195 0.100585 1.158523
2011-02-24 07:59:01 51°13.662 2°55.962 13.9273 0.0195 0.100585 1.158523
2011-02-24 07:59:07 51°13.662 2°55.962 13.9267 0.0195 0.100585 1.158523
2011-02-24 07:59:12 51°13.662 2°55.962 13.916 0.0195 0.100585 1.158523
2011-02-24 07:59:17 51°13.662 2°55.962 13.9184 0.0195 0.100584 1.158523
2011-02-24 07:59:22 51°13.662 2°55.961 13.9153 0.0195 0.100584 1.158523
2011-02-24 07:59:27 51°13.662 2°55.961 13.9193 0.0195 0.100583 1.158523
2011-02-24 07:59:32 51°13.662 2°55.961 13.9247 0.0195 0.100583 1.158523
2011-02-24 07:59:37 51°13.662 2°55.961 13.9271 0.0195 0.100583 1.158523
2011-02-24 07:59:42 51°13.662 2°55.961 13.9296 0.0195 0.100583 1.158523
2011-02-24 07:59:47 51°13.662 2°55.961 13.9327 0.0195 0.100581 1.158523
2011-02-24 07:59:52 51°13.662 2°55.961 13.9336 0.0195 0.100583 1.158523
2011-02-24 07:59:57 51°13.662 2°55.961 13.9326 0.0195 0.10058 1.193347
2011-02-24 08:00:02 51°13.662 2°55.961 13.9304 0.0195 0.100581 1.158523
2011-02-24 08:00:07 51°13.662 2°55.961 13.9326 0.0195 0.100581 1.158523
2011-02-24 08:00:12 51°13.662 2°55.961 13.9317 0.0195 0.10058 1.193347
2011-02-24 08:00:17 51°13.662 2°55.961 13.9337 0.0195 0.100581 1.158523
2011-02-24 08:00:22 51°13.662 2°55.961 13.9335 0.0195 0.100579 1.158523
2011-02-24 08:00:27 51°13.662 2°55.961 13.9322 0.0195 0.100578 1.158523
2011-02-24 08:00:32 51°13.662 2°55.961 13.9313 0.0195 0.100579 1.193347
2011-02-24 08:00:37 51°13.662 2°55.961 13.9295 0.0195 0.100579 1.193347
2011-02-24 08:00:41 51°13.662 2°55.961 13.9276 0.0195 0.100578 1.158523
2011-02-24 08:00:46 51°13.662 2°55.961 13.9309 0.0195 0.100578 1.158523
2011-02-24 08:00:51 51°13.662 2°55.961 13.9289 0.0195 0.100576 1.158523
2011-02-24 08:00:56 51°13.662 2°55.961 13.931 0.0195 0.100578 1.158523
2011-02-24 08:01:01 51°13.662 2°55.961 13.931 0.0195 0.100578 1.158523
2011-02-24 08:01:06 51°13.662 2°55.961 13.9311 0.0195 0.100578 1.158523
2011-02-24 08:01:12 51°13.662 2°55.961 13.9296 0.0195 0.100576 1.158523
2011-02-24 08:01:17 51°13.662 2°55.961 13.9298 0.0195 0.100576 1.193347
2011-02-24 08:01:22 51°13.662 2°55.961 13.929 0.0195 0.100576 1.193347
2011-02-24 08:01:26 51°13.662 2°55.961 13.9231 0.0195 0.100575 1.193347
2011-02-24 08:01:32 51°13.662 2°55.961 13.9067 0.0195 0.100575 1.158523
2011-02-24 08:01:37 51°13.662 2°55.961 13.9103 0.0195 0.100575 1.158523
2011-02-24 08:01:42 51°13.662 2°55.961 13.917 0.0195 0.100576 1.158523
2011-02-24 08:01:46 51°13.662 2°55.961 13.9196 0.0195 0.100575 1.193347
2011-02-24 08:01:51 51°13.662 2°55.961 13.9216 0.0195 0.100575 1.193347
2011-02-24 08:01:56 51°13.662 2°55.961 13.922 0.0195 0.100574 1.193347
2011-02-24 08:02:02 51°13.662 2°55.961 13.9236 0.0195 0.100574 1.193347
2011-02-24 08:02:07 51°13.662 2°55.961 13.9233 0.0195 0.100574 1.193347
2011-02-24 08:02:12 51°13.663 2°55.96 13.9245 0.0195 0.100572 1.158523
2011-02-24 08:02:17 51°13.662 2°55.96 13.9249 0.0195 0.100574 1.158523
2011-02-24 08:02:22 51°13.662 2°55.96 13.9226 0.0195 0.100574 1.158523
2011-02-24 08:02:27 51°13.662 2°55.96 13.9095 0.0195 0.100572 1.193347
2011-02-24 08:02:32 51°13.662 2°55.96 13.9143 0.0195 0.100572 1.193347
2011-02-24 08:02:37 51°13.662 2°55.96 13.9159 0.0195 0.100572 1.193347
2011-02-24 08:02:42 51°13.662 2°55.96 13.922 0.0195 0.100574 1.193347
2011-02-24 08:02:47 51°13.662 2°55.961 13.9233 0.0195 0.100572 1.193347
2011-02-24 08:02:52 51°13.662 2°55.961 13.9266 0.0195 0.100572 1.158523
2011-02-24 08:02:57 51°13.662 2°55.961 13.9281 0.0195 0.100574 1.193347
2011-02-24 08:03:02 51°13.662 2°55.961 13.9292 0.0195 0.100571 1.158523
2011-02-24 08:03:07 51°13.662 2°55.961 13.9286 0.0195 0.100571 1.158523
2011-02-24 08:03:12 51°13.662 2°55.961 13.9296 0.0195 0.100572 1.193347
2011-02-24 08:03:17 51°13.662 2°55.961 13.9316 0.0195 0.100572 1.193347
2011-02-24 08:03:22 51°13.662 2°55.961 13.933 0.0195 0.100571 1.123699
2011-02-24 08:03:27 51°13.662 2°55.961 13.9345 0.0195 0.100572 1.158523
2011-02-24 08:03:31 51°13.662 2°55.961 13.9348 0.0195 0.100571 1.158523
2011-02-24 08:03:37 51°13.662 2°55.961 13.9339 0.0195 0.100571 1.158523
2011-02-24 08:03:42 51°13.662 2°55.961 13.9334 0.0195 0.100571 1.158523
2011-02-24 08:03:47 51°13.662 2°55.961 13.9348 0.0195 0.100571 1.193347
2011-02-24 08:03:52 51°13.662 2°55.961 13.9349 0.0195 0.100571 1.193347
2011-02-24 08:03:56 51°13.662 2°55.961 13.9357 0.0195 0.10057 1.158523
2011-02-24 08:04:01 51°13.662 2°55.961 13.9362 0.0195 0.10057 1.193347
2011-02-24 08:04:06 51°13.662 2°55.961 13.9368 0.0195 0.10057 1.193347
2011-02-24 08:04:11 51°13.662 2°55.961 13.9378 0.0195 0.100571 1.193347
2011-02-24 08:04:17 51°13.662 2°55.96 13.9394 0.0195 0.10057 1.193347
2011-02-24 08:04:22 51°13.662 2°55.96 13.9404 0.0195 0.10057 1.158523
2011-02-24 08:04:27 51°13.662 2°55.961 13.9411 0.0195 0.10057 1.193347
2011-02-24 08:04:32 51°13.662 2°55.961 13.942 0.0195 0.10057 1.158523
2011-02-24 08:04:36 51°13.662 2°55.961 13.9419 0.0195 0.10057 1.158523
2011-02-24 08:04:42 51°13.662 2°55.961 13.942 0.0195 0.100568 1.193347
2011-02-24 08:04:47 51°13.662 2°55.961 13.9428 0.0195 0.100568 1.158523
2011-02-24 08:04:52 51°13.662 2°55.961 13.9434 0.0195 0.100568 1.193347
2011-02-24 08:04:56 51°13.662 2°55.961 13.944 0.0195 0.100567 1.193347
2011-02-24 08:05:02 51°13.662 2°55.961 13.9452 0.0195 0.100567 1.158523
2011-02-24 08:05:07 51°13.662 2°55.96 13.946 0.0195 0.100567 1.158523
2011-02-24 08:05:12 51°13.663 2°55.961 13.9452 0.0195 0.100568 1.193347
2011-02-24 08:05:16 51°13.663 2°55.961 13.9458 0.0195 0.100567 1.158523
2011-02-24 08:05:22 51°13.663 2°55.961 13.9462 0.0195 0.100566 1.193347
2011-02-24 08:05:27 51°13.663 2°55.961 13.9467 0.0195 0.100566 1.158523
2011-02-24 08:05:32 51°13.663 2°55.961 13.948 0.0195 0.100566 1.158523
2011-02-24 08:05:37 51°13.663 2°55.961 13.9473 0.0195 0.100566 1.158523
2011-02-24 08:05:42 51°13.663 2°55.96 13.9465 0.0195 0.100564 1.158523
2011-02-24 08:05:47 51°13.663 2°55.961 13.9537 0.0195 0.100566 1.193347
2011-02-24 08:05:52 51°13.663 2°55.96 13.9539 0.0195 0.100563 1.158523
2011-02-24 08:05:57 51°13.663 2°55.96 13.9551 0.0195 0.100564 1.193347
2011-02-24 08:06:02 51°13.663 2°55.96 13.9561 0.0195 0.100564 1.158523
2011-02-24 08:06:07 51°13.663 2°55.96 13.9579 0.0195 0.100564 1.158523
2011-02-24 08:06:12 51°13.663 2°55.96 13.9586 0.0195 0.100563 1.193347
2011-02-24 08:06:17 51°13.663 2°55.96 13.96 0.0195 0.100563 1.158523
2011-02-24 08:06:22 51°13.663 2°55.96 13.9599 0.0195 0.100562 1.193347
2011-02-24 08:06:27 51°13.663 2°55.96 13.9606 0.0195 0.100562 1.193347
2011-02-24 08:06:32 51°13.663 2°55.96 13.9597 0.0195 0.100562 1.158523
2011-02-24 08:06:37 51°13.663 2°55.96 13.9581 0.0195 0.100562 1.158523
2011-02-24 08:06:41 51°13.663 2°55.96 13.9584 0.0195 0.100561 1.158523
2011-02-24 08:06:47 51°13.663 2°55.96 13.9597 0.0195 0.100562 1.193347
2011-02-24 08:06:52 51°13.663 2°55.96 13.9591 0.0195 0.100559 1.193347
2011-02-24 08:06:56 51°13.663 2°55.96 13.9576 0.0195 0.100561 1.193347
2011-02-24 08:07:01 51°13.663 2°55.96 13.9571 0.0195 0.100561 1.193347
2011-02-24 08:07:07 51°13.663 2°55.96 13.9579 0.0195 0.100561 1.193347
2011-02-24 08:07:12 51°13.663 2°55.96 13.9593 0.0195 0.100558 1.158523
2011-02-24 08:07:17 51°13.663 2°55.96 13.9602 0.0195 0.100558 1.158523
2011-02-24 08:07:21 51°13.663 2°55.96 13.9601 0.0195 0.100557 1.158523
2011-02-24 08:07:27 51°13.663 2°55.961 13.9612 0.0195 0.100558 1.193347
2011-02-24 08:07:31 51°13.664 2°55.961 13.9612 0.0195 0.100557 1.193347
2011-02-24 08:07:37 51°13.664 2°55.961 13.9616 0.0195 0.100557 1.193347
2011-02-24 08:07:42 51°13.664 2°55.961 13.963 0.0195 0.100557 1.193347
2011-02-24 08:07:46 51°13.664 2°55.961 13.9637 0.0195 0.100555 1.193347
2011-02-24 08:07:52 51°13.664 2°55.961 13.9621 0.0195 0.100555 1.158523
2011-02-24 08:07:57 51°13.664 2°55.961 13.9641 0.0195 0.100555 1.158523
2011-02-24 08:08:02 51°13.664 2°55.961 13.9617 0.0195 0.100555 1.158523
2011-02-24 08:08:06 51°13.664 2°55.961 13.9616 0.0195 0.100555 1.158523
2011-02-24 08:08:12 51°13.664 2°55.961 13.9613 0.0195 0.100554 1.193347
2011-02-24 08:08:17 51°13.664 2°55.961 13.9633 0.0195 0.100554 1.158523
2011-02-24 08:08:22 51°13.664 2°55.961 13.9627 0.0195 0.100554 1.193347
2011-02-24 08:08:26 51°13.664 2°55.961 13.963 0.0195 0.100553 1.158523
2011-02-24 08:08:31 51°13.664 2°55.961 13.9632 0.0195 0.100553 1.158523
2011-02-24 08:08:37 51°13.664 2°55.961 13.9642 0.0195 0.100553 1.158523
2011-02-24 08:08:42 51°13.664 2°55.961 13.9656 0.0195 0.100554 1.158523
2011-02-24 08:08:47 51°13.664 2°55.961 13.9669 0.0195 0.100553 1.193347
2011-02-24 08:08:51 51°13.664 2°55.961 13.9665 0.0195 0.100551 1.158523
2011-02-24 08:08:57 51°13.664 2°55.961 13.9672 0.0195 0.100551 1.158523
2011-02-24 08:09:02 51°13.664 2°55.96 13.966 0.0195 0.10055 1.158523
2011-02-24 08:09:07 51°13.664 2°55.961 13.9645 0.0195 0.10055 1.158523
2011-02-24 08:09:12 51°13.664 2°55.961 13.9655 0.0195 0.100551 1.158523
2011-02-24 08:09:17 51°13.664 2°55.961 13.9673 0.0195 0.10055 1.193347
2011-02-24 08:09:22 51°13.664 2°55.961 13.9679 0.0195 0.100551 1.158523
2011-02-24 08:09:27 51°13.664 2°55.961 13.9693 0.0195 0.10055 1.158523
2011-02-24 08:09:32 51°13.664 2°55.961 13.9691 0.0195 0.100549 1.158523
2011-02-24 08:09:37 51°13.664 2°55.961 13.9688 0.0195 0.100549 1.158523
2011-02-24 08:09:42 51°13.663 2°55.961 13.968 0.0195 0.100549 1.158523
2011-02-24 08:09:47 51°13.663 2°55.961 13.9674 0.0195 0.100549 1.158523
2011-02-24 08:09:52 51°13.664 2°55.961 13.968 0.0195 0.100546 1.193347
2011-02-24 08:09:57 51°13.664 2°55.961 13.9687 0.0195 0.100547 1.158523
2011-02-24 08:10:02 51°13.664 2°55.961 13.9683 0.0195 0.100546 1.193347
2011-02-24 08:10:07 51°13.664 2°55.961 13.9683 0.0195 0.100546 1.193347
2011-02-24 08:10:12 51°13.664 2°55.961 13.9701 0.0195 0.100546 1.193347
2011-02-24 08:10:17 51°13.664 2°55.961 13.972 0.0195 0.100546 1.193347
2011-02-24 08:10:22 51°13.664 2°55.961 13.9745 0.0195 0.100545 1.158523
2011-02-24 08:10:26 51°13.664 2°55.96 13.9756 0.0195 0.100545 1.193347
2011-02-24 08:10:31 51°13.664 2°55.96 13.9765 0.0195 0.100543 1.158523
2011-02-24 08:10:37 51°13.664 2°55.961 13.976 0.0195 0.100543 1.158523
2011-02-24 08:10:42 51°13.664 2°55.96 13.9757 0.0195 0.100545 1.158523
2011-02-24 08:10:47 51°13.664 2°55.96 13.975 0.0195 0.100543 1.193347
2011-02-24 08:10:52 51°13.664 2°55.96 13.9745 0.0195 0.100543 1.193347
2011-02-24 08:10:57 51°13.664 2°55.96 13.9746 0.0195 0.100543 1.193347
2011-02-24 08:11:02 51°13.664 2°55.96 13.9757 0.0195 0.100542 1.158523
2011-02-24 08:11:07 51°13.664 2°55.96 13.9759 0.0195 0.100542 1.158523
2011-02-24 08:11:12 51°13.664 2°55.96 13.9753 0.0195 0.100542 1.193347
2011-02-24 08:11:17 51°13.664 2°55.96 13.9753 0.0195 0.100542 1.158523
2011-02-24 08:11:22 51°13.664 2°55.96 13.9765 0.0195 0.100541 1.158523
2011-02-24 08:11:27 51°13.664 2°55.96 13.9764 0.0195 0.100541 1.158523
2011-02-24 08:11:32 51°13.664 2°55.96 13.9774 0.0195 0.100541 1.193347
2011-02-24 08:11:36 51°13.664 2°55.961 13.9786 0.0195 0.100541 1.193347
2011-02-24 08:11:42 51°13.664 2°55.961 13.9774 0.0195 0.10054 1.158523
2011-02-24 08:11:47 51°13.664 2°55.96 13.9779 0.0195 0.100541 1.158523
2011-02-24 08:11:52 51°13.664 2°55.96 13.9772 0.0195 0.10054 1.158523
2011-02-24 08:11:57 51°13.664 2°55.96 13.9768 0.0195 0.10054 1.193347
2011-02-24 08:12:02 51°13.664 2°55.961 13.9768 0.0195 0.10054 1.158523
2011-02-24 08:12:07 51°13.664 2°55.961 13.9761 0.0195 0.10054 1.158523
2011-02-24 08:12:12 51°13.664 2°55.961 13.9765 0.0195 0.100538 1.158523
2011-02-24 08:12:16 51°13.664 2°55.96 13.9776 0.0195 0.100538 1.193347
2011-02-24 08:12:22 51°13.664 2°55.96 13.9758 0.0195 0.100538 1.158523
2011-02-24 08:12:27 51°13.664 2°55.961 13.9777 0.0195 0.100537 1.193347
2011-02-24 08:12:32 51°13.664 2°55.961 13.9749 0.0195 0.100538 1.158523
2011-02-24 08:12:36 51°13.664 2°55.961 13.9766 0.0195 0.100538 1.158523
2011-02-24 08:12:42 51°13.664 2°55.961 13.9735 0.0195 0.100537 1.158523
2011-02-24 08:12:47 51°13.665 2°55.961 13.9745 0.0195 0.100537 1.158523
2011-02-24 08:12:52 51°13.665 2°55.961 13.9759 0.0195 0.100537 1.193347
2011-02-24 08:12:56 51°13.665 2°55.961 13.9765 0.0195 0.100536 1.193347
2011-02-24 08:13:01 51°13.665 2°55.961 13.978 0.0195 0.100536 1.193347
2011-02-24 08:13:06 51°13.665 2°55.961 13.9791 0.0195 0.100536 1.193347
2011-02-24 08:13:12 51°13.664 2°55.961 13.9797 0.0195 0.100536 1.193347
2011-02-24 08:13:17 51°13.665 2°55.96 13.981 0.0195 0.100537 1.193347
2011-02-24 08:13:22 51°13.665 2°55.961 13.9787 0.0195 0.100536 1.193347
2011-02-24 08:13:27 51°13.665 2°55.961 13.9771 0.0195 0.100536 1.193347
2011-02-24 08:13:32 51°13.665 2°55.96 13.9795 0.0195 0.100534 1.193347
2011-02-24 08:13:37 51°13.665 2°55.961 13.9811 0.0195 0.100534 1.193347
2011-02-24 08:13:42 51°13.665 2°55.96 13.9836 0.0195 0.100536 1.193347
2011-02-24 08:13:47 51°13.665 2°55.96 13.9851 0.0195 0.100534 1.158523
2011-02-24 08:13:52 51°13.665 2°55.96 13.9868 0.0195 0.100533 1.158523
2011-02-24 08:13:57 51°13.665 2°55.96 13.9868 0.0195 0.100534 1.158523
2011-02-24 08:14:02 51°13.665 2°55.96 13.9881 0.0195 0.100534 1.158523
2011-02-24 08:14:07 51°13.664 2°55.96 13.9895 0.0195 0.100534 1.158523
2011-02-24 08:14:12 51°13.665 2°55.961 13.9898 0.0195 0.100534 1.158523
2011-02-24 08:14:17 51°13.665 2°55.961 13.9893 0.0195 0.100533 1.158523
2011-02-24 08:14:22 51°13.664 2°55.961 13.988 0.0195 0.100533 1.158523
2011-02-24 08:14:27 51°13.664 2°55.96 13.9865 0.0195 0.100534 1.193347
2011-02-24 08:14:32 51°13.664 2°55.96 13.9814 0.0195 0.100533 1.158523
2011-02-24 08:14:37 51°13.664 2°55.96 13.9811 0.0195 0.100533 1.158523
2011-02-24 08:14:42 51°13.664 2°55.96 13.9786 0.0195 0.100532 1.193347
2011-02-24 08:14:47 51°13.664 2°55.96 13.983 0.0195 0.100533 1.158523
2011-02-24 08:14:52 51°13.664 2°55.96 13.9849 0.0195 0.100533 1.193347
2011-02-24 08:14:57 51°13.664 2°55.96 13.9892 0.0195 0.100533 1.193347
2011-02-24 08:15:02 51°13.664 2°55.961 13.9929 0.0195 0.100532 1.158523
2011-02-24 08:15:07 51°13.664 2°55.961 14.0003 0.0195 0.100532 1.158523
2011-02-24 08:15:12 51°13.664 2°55.961 14.0011 0.0195 0.100532 1.158523
2011-02-24 08:15:17 51°13.664 2°55.961 14.0013 0.0195 0.100533 1.158523
2011-02-24 08:15:22 51°13.664 2°55.961 14.0009 0.0195 0.100532 1.158523
2011-02-24 08:15:27 51°13.664 2°55.961 14.0021 0.0195 0.100532 1.158523
2011-02-24 08:15:32 51°13.664 2°55.961 14.0015 0.0195 0.100532 1.193347
2011-02-24 08:15:37 51°13.664 2°55.961 14.0022 0.0195 0.100532 1.193347
2011-02-24 08:15:42 51°13.664 2°55.961 14.0017 0.0195 0.100532 1.193347
2011-02-24 08:15:47 51°13.664 2°55.961 14.0012 0.0195 0.100532 1.158523
2011-02-24 08:15:52 51°13.664 2°55.961 14.0017 0.0195 0.10053 1.193347
2011-02-24 08:15:57 51°13.664 2°55.961 14 0.0195 0.100532 1.158523
2011-02-24 08:16:02 51°13.664 2°55.961 13.9988 0.0195 0.100532 1.193347
2011-02-24 08:16:07 51°13.664 2°55.961 13.9936 0.0195 0.100532 1.193347
2011-02-24 08:16:12 51°13.664 2°55.961 13.9935 0.0195 0.10053 1.158523
2011-02-24 08:16:17 51°13.664 2°55.962 13.994 0.0195 0.100532 1.193347
2011-02-24 08:16:21 51°13.664 2°55.961 13.9952 0.0195 0.100532 1.193347
2011-02-24 08:16:27 51°13.664 2°55.961 13.9975 0.0195 0.10053 1.193347
2011-02-24 08:16:31 51°13.664 2°55.962 13.9984 0.0195 0.100532 1.158523
2011-02-24 08:16:36 51°13.664 2°55.962 13.9989 0.0195 0.100532 1.158523
2011-02-24 08:16:41 51°13.664 2°55.962 13.9993 0.0195 0.100532 1.193347
2011-02-24 08:16:46 51°13.664 2°55.961 14.0001 0.0195 0.100532 1.158523
2011-02-24 08:16:52 51°13.664 2°55.962 14.0017 0.0195 0.100532 1.158523
2011-02-24 08:16:57 51°13.664 2°55.962 14.0026 0.0195 0.100532 1.158523
2011-02-24 08:17:02 51°13.664 2°55.961 14.0043 0.0195 0.100532 1.158523
2011-02-24 08:17:06 51°13.664 2°55.961 14.0058 0.0195 0.100532 1.158523
2011-02-24 08:17:12 51°13.664 2°55.961 14.0063 0.0195 0.10053 1.193347
2011-02-24 08:17:17 51°13.664 2°55.961 14.0071 0.0195 0.10053 1.158523
2011-02-24 08:17:22 51°13.664 2°55.961 14.0102 0.0195 0.10053 1.158523
2011-02-24 08:17:26 51°13.664 2°55.961 14.0101 0.0195 0.10053 1.193347
2011-02-24 08:17:32 51°13.664 2°55.961 14.0079 0.0195 0.100529 1.158523
2011-02-24 08:17:37 51°13.664 2°55.961 14.0072 0.0195 0.100529 1.158523
2011-02-24 08:17:42 51°13.664 2°55.962 14.0085 0.0195 0.10053 1.158523
2011-02-24 08:17:46 51°13.664 2°55.961 14.0094 0.0195 0.10053 1.193347
2011-02-24 08:17:52 51°13.663 2°55.961 14.0096 0.0195 0.10053 1.193347
2011-02-24 08:17:56 51°13.664 2°55.961 14.0101 0.0195 0.100529 1.193347
2011-02-24 08:18:02 51°13.664 2°55.961 14.0081 0.0195 0.10053 1.158523
2011-02-24 08:18:06 51°13.664 2°55.961 14.0104 0.0195 0.10053 1.158523
2011-02-24 08:18:11 51°13.664 2°55.962 14.0111 0.0195 0.100529 1.158523
2011-02-24 08:18:17 51°13.664 2°55.962 14.0128 0.0195 0.100529 1.193347
2011-02-24 08:18:22 51°13.664 2°55.962 14.0145 0.0195 0.10053 1.158523
2011-02-24 08:18:27 51°13.664 2°55.962 14.0143 0.0195 0.10053 1.158523
2011-02-24 08:18:32 51°13.664 2°55.962 14.0156 0.0195 0.10053 1.158523
2011-02-24 08:18:37 51°13.664 2°55.962 14.0139 0.0195 0.10053 1.158523
2011-02-24 08:18:42 51°13.664 2°55.962 14.0135 0.0195 0.100529 1.158523
2011-02-24 08:18:47 51°13.664 2°55.962 14.0117 0.0195 0.100529 1.158523
2011-02-24 08:18:52 51°13.664 2°55.962 14.0114 0.0195 0.100529 1.158523
2011-02-24 08:18:57 51°13.664 2°55.962 14.0129 0.0195 0.100529 1.193347
2011-02-24 08:19:02 51°13.664 2°55.962 14.0138 0.0195 0.100529 1.158523
2011-02-24 08:19:07 51°13.664 2°55.962 14.0149 0.0195 0.100529 1.158523
2011-02-24 08:19:12 51°13.664 2°55.962 14.0153 0.0195 0.100529 1.193347
2011-02-24 08:19:17 51°13.664 2°55.962 14.0169 0.0195 0.10053 1.158523
2011-02-24 08:19:22 51°13.664 2°55.962 14.0184 0.0195 0.10053 1.193347
2011-02-24 08:19:27 51°13.664 2°55.962 14.0183 0.0195 0.100532 1.193347
2011-02-24 08:19:32 51°13.664 2°55.961 14.0186 0.0195 0.100529 1.193347